DLH444 EDDF-KATL

Flight info

Callsign DLH444
Flight time 9h 5m
Altitude 36000
Route OBOKA5G/25C OBOKA Z28 DIBIR DCT BUDIP DCT GISEB DCT RAVLO Y70 ABTOS N110 ERKIT DCT KUGUR DCT PIKIL/M084F380 NATG JANJO/N0487F380 DCT SPOTE/N0481F400 DCT ART DCT SYR J59 PSB Q71 GEFFS DCT HVQ DCT HLRRY ONDRE1
Aircraft B789/H-SADFGHIJ1J2J3J4J5LOP1P2RWXYZ/LB1D1

Departure

Time 2026-04-17 12:16
Airport Frankfurt Main Airport (EDDF)

Arrival

Time 2026-04-17 21:21
Airport Hartsfield Jackson Atlanta International Airport (KATL)
Time Latitude Longitude Altitude Speed Heading
2026-04-17 11:49 50.04752 8.56391 368 ft 0 kts 340°
2026-04-17 11:59 50.04751 8.56391 361 ft 1 kts 340°
2026-04-17 11:59 50.04729 8.56405 365 ft 4 kts 336°
2026-04-17 12:00 50.04705 8.56423 361 ft 4 kts 329°
2026-04-17 12:00 50.04683 8.56448 369 ft 4 kts 313°
2026-04-17 12:00 50.04669 8.56481 365 ft 4 kts 301°
2026-04-17 12:00 50.04652 8.56505 368 ft 4 kts 359°
2026-04-17 12:01 50.04636 8.56500 365 ft 1 kts 25°
2026-04-17 12:01 50.04655 8.56495 368 ft 4 kts 332°
2026-04-17 12:01 50.04667 8.56463 368 ft 4 kts 285°
2026-04-17 12:01 50.04664 8.56423 362 ft 4 kts 255°
2026-04-17 12:02 50.04661 8.56412 365 ft 4 kts 252°
2026-04-17 12:02 50.04659 8.56402 366 ft 0 kts 250°
2026-04-17 12:06 50.04659 8.56401 366 ft 1 kts 250°
2026-04-17 12:06 50.04650 8.56363 368 ft 5 kts 249°
2026-04-17 12:06 50.04635 8.56304 362 ft 7 kts 249°
2026-04-17 12:06 50.04617 8.56227 365 ft 8 kts 250°
2026-04-17 12:07 50.04596 8.56140 366 ft 8 kts 249°
2026-04-17 12:07 50.04574 8.56051 366 ft 10 kts 249°
2026-04-17 12:07 50.04547 8.55972 368 ft 6 kts 218°
2026-04-17 12:07 50.04506 8.55947 367 ft 7 kts 197°
2026-04-17 12:08 50.04458 8.55926 366 ft 8 kts 195°
2026-04-17 12:08 50.04393 8.55909 361 ft 11 kts 179°
2026-04-17 12:08 50.04321 8.55943 363 ft 9 kts 160°
2026-04-17 12:08 50.04255 8.55950 361 ft 10 kts 206°
2026-04-17 12:09 50.04187 8.55916 364 ft 10 kts 169°
2026-04-17 12:09 50.04123 8.55956 366 ft 10 kts 158°
2026-04-17 12:09 50.04072 8.56019 362 ft 8 kts 99°
2026-04-17 12:09 50.04083 8.56101 363 ft 8 kts 65°
2026-04-17 12:10 50.04105 8.56185 363 ft 10 kts 69°
2026-04-17 12:10 50.04131 8.56296 360 ft 12 kts 70°
2026-04-17 12:10 50.04161 8.56422 363 ft 12 kts 70°
2026-04-17 12:10 50.04191 8.56544 366 ft 12 kts 70°
2026-04-17 12:11 50.04219 8.56663 366 ft 12 kts 69°
2026-04-17 12:11 50.04249 8.56788 368 ft 13 kts 69°
2026-04-17 12:11 50.04282 8.56926 368 ft 15 kts 69°
2026-04-17 12:12 50.04364 8.57269 370 ft 19 kts 70°
2026-04-17 12:12 50.04409 8.57458 368 ft 19 kts 69°
2026-04-17 12:12 50.04452 8.57634 370 ft 15 kts 70°
2026-04-17 12:12 50.04488 8.57790 371 ft 15 kts 70°
2026-04-17 12:13 50.04527 8.57953 372 ft 17 kts 70°
2026-04-17 12:13 50.04570 8.58131 370 ft 18 kts 69°
2026-04-17 12:13 50.04607 8.58295 379 ft 14 kts 72°
2026-04-17 12:13 50.04642 8.58436 375 ft 11 kts 69°
2026-04-17 12:14 50.04652 8.58524 377 ft 7 kts 104°
2026-04-17 12:14 50.04623 8.58569 376 ft 5 kts 152°
2026-04-17 12:14 50.04592 8.58587 376 ft 4 kts 162°
2026-04-17 12:14 50.04549 8.58612 377 ft 9 kts 159°
2026-04-17 12:15 50.04487 8.58603 377 ft 7 kts 231°
2026-04-17 12:15 50.04461 8.58493 376 ft 25 kts 251°
2026-04-17 12:15 50.04336 8.57959 371 ft 79 kts 250°
2026-04-17 12:15 50.04084 8.56905 370 ft 127 kts 250°
2026-04-17 12:16 50.03731 8.55417 393 ft 160 kts 248°
2026-04-17 12:16 50.03330 8.53752 695 ft 174 kts 249°
2026-04-17 12:16 50.02914 8.51998 1347 ft 173 kts 248°
2026-04-17 12:16 50.02667 8.50164 1823 ft 178 kts 275°
2026-04-17 12:17 50.02891 8.48224 2230 ft 193 kts 276°
2026-04-17 12:17 50.02995 8.45978 2572 ft 221 kts 273°
2026-04-17 12:17 50.02954 8.43572 3310 ft 226 kts 259°
2026-04-17 12:17 50.02649 8.41125 4003 ft 239 kts 258°
2026-04-17 12:18 50.02313 8.38432 4528 ft 261 kts 258°
2026-04-17 12:18 50.01985 8.35686 5563 ft 262 kts 258°
2026-04-17 12:18 50.01651 8.32864 6483 ft 267 kts 258°
2026-04-17 12:18 50.01316 8.29990 7370 ft 270 kts 261°
2026-04-17 12:19 50.01520 8.27092 8213 ft 275 kts 289°
2026-04-17 12:19 50.02164 8.24562 8973 ft 280 kts 293°
2026-04-17 12:19 50.02982 8.21861 9933 ft 280 kts 295°
2026-04-17 12:19 50.03832 8.19081 10569 ft 293 kts 294°
2026-04-17 12:20 50.04714 8.16044 10744 ft 321 kts 293°
2026-04-17 12:20 50.05653 8.12809 11157 ft 337 kts 296°
2026-04-17 12:20 50.07033 8.09870 11986 ft 339 kts 310°
2026-04-17 12:20 50.08461 8.07117 12702 ft 343 kts 307°
2026-04-17 12:21 50.09935 8.04165 13522 ft 347 kts 307°
2026-04-17 12:21 50.11450 8.01205 14308 ft 351 kts 308°
2026-04-17 12:21 50.12996 7.98232 15021 ft 355 kts 308°
2026-04-17 12:21 50.14550 7.95217 15727 ft 358 kts 307°
2026-04-17 12:22 50.16112 7.92161 16473 ft 361 kts 307°
2026-04-17 12:22 50.17688 7.89075 17168 ft 365 kts 307°
2026-04-17 12:22 50.19284 7.85961 17874 ft 368 kts 307°
2026-04-17 12:22 50.20895 7.82813 18547 ft 372 kts 307°
2026-04-17 12:23 50.22497 7.79673 19083 ft 376 kts 307°
2026-04-17 12:23 50.24136 7.76466 19689 ft 378 kts 308°
2026-04-17 12:23 50.26092 7.73676 20219 ft 385 kts 324°
2026-04-17 12:23 50.28502 7.71674 20238 ft 397 kts 334°
2026-04-17 12:24 50.31029 7.69977 20232 ft 392 kts 335°
2026-04-17 12:24 50.33512 7.68334 20804 ft 390 kts 334°
2026-04-17 12:24 50.36002 7.66625 21400 ft 392 kts 334°
2026-04-17 12:24 50.38509 7.64876 21930 ft 395 kts 334°
2026-04-17 12:25 50.41037 7.63136 22506 ft 398 kts 334°
2026-04-17 12:25 50.43583 7.61398 23039 ft 400 kts 334°
2026-04-17 12:25 50.46143 7.59639 23552 ft 403 kts 334°
2026-04-17 12:25 50.48726 7.57853 24003 ft 405 kts 334°
2026-04-17 12:26 50.51324 7.56057 24433 ft 407 kts 334°
2026-04-17 12:26 50.53897 7.54281 24856 ft 409 kts 334°
2026-04-17 12:26 50.56453 7.52308 25249 ft 408 kts 324°
2026-04-17 12:26 50.58829 7.49834 25605 ft 410 kts 325°
2026-04-17 12:27 50.61235 7.47410 26029 ft 411 kts 326°
2026-04-17 12:27 50.63650 7.44962 26372 ft 414 kts 324°
2026-04-17 12:27 50.66069 7.42467 26789 ft 414 kts 324°
2026-04-17 12:27 50.68459 7.40000 27172 ft 416 kts 324°
2026-04-17 12:28 50.70896 7.37500 27549 ft 418 kts 325°
2026-04-17 12:28 50.73291 7.34914 27885 ft 417 kts 318°
2026-04-17 12:28 50.75364 7.31696 28244 ft 417 kts 308°
2026-04-17 12:28 50.77086 7.28005 28547 ft 418 kts 304°
2026-04-17 12:29 50.78777 7.24245 28895 ft 419 kts 304°
2026-04-17 12:29 50.80457 7.20463 29237 ft 421 kts 304°
2026-04-17 12:29 50.82145 7.16663 29556 ft 423 kts 304°
2026-04-17 12:29 50.83820 7.12908 29865 ft 424 kts 304°
2026-04-17 12:30 50.85526 7.09079 30176 ft 426 kts 304°
2026-04-17 12:30 50.87230 7.05238 30446 ft 427 kts 304°
2026-04-17 12:30 50.88940 7.01375 30695 ft 429 kts 304°
2026-04-17 12:30 50.90655 6.97500 30953 ft 430 kts 304°
2026-04-17 12:31 50.92377 6.93609 31203 ft 431 kts 304°
2026-04-17 12:31 50.94103 6.89705 31460 ft 432 kts 304°
2026-04-17 12:31 50.95811 6.85832 31700 ft 434 kts 304°
2026-04-17 12:31 50.97542 6.81902 31946 ft 435 kts 304°
2026-04-17 12:32 50.99280 6.77950 32175 ft 436 kts 304°
2026-04-17 12:32 51.01017 6.73996 32408 ft 437 kts 304°
2026-04-17 12:32 51.02758 6.70024 32643 ft 438 kts 304°
2026-04-17 12:32 51.04502 6.66041 32874 ft 439 kts 304°
2026-04-17 12:33 51.06248 6.62046 33072 ft 440 kts 304°
2026-04-17 12:33 51.07998 6.58037 33273 ft 442 kts 304°
2026-04-17 12:33 51.09755 6.54003 33476 ft 443 kts 304°
2026-04-17 12:33 51.11512 6.49962 33671 ft 444 kts 304°
2026-04-17 12:34 51.13269 6.45913 33859 ft 445 kts 304°
2026-04-17 12:34 51.15012 6.41893 34058 ft 446 kts 304°
2026-04-17 12:34 51.16775 6.37821 34247 ft 447 kts 304°
2026-04-17 12:34 51.18539 6.33740 34462 ft 447 kts 304°
2026-04-17 12:35 51.20304 6.29647 34624 ft 447 kts 304°
2026-04-17 12:35 51.22065 6.25560 34838 ft 446 kts 304°
2026-04-17 12:35 51.23822 6.21474 35047 ft 446 kts 304°
2026-04-17 12:35 51.25575 6.17393 35227 ft 446 kts 303°
2026-04-17 12:37 51.37552 5.88417 36217 ft 449 kts 307°
2026-04-17 12:38 51.41782 5.81007 36221 ft 449 kts 313°
2026-04-17 12:38 51.46094 5.73828 36206 ft 449 kts 312°
2026-04-17 12:39 51.50402 5.66606 36202 ft 448 kts 312°
2026-04-17 12:39 51.54718 5.59366 36204 ft 448 kts 312°
2026-04-17 12:40 51.59020 5.52121 36209 ft 447 kts 312°
2026-04-17 12:40 51.63323 5.44856 36209 ft 448 kts 312°
2026-04-17 12:41 51.67600 5.37612 36212 ft 450 kts 311°
2026-04-17 12:41 51.71912 5.30289 36212 ft 449 kts 311°
2026-04-17 12:42 51.76203 5.22978 36212 ft 450 kts 311°
2026-04-17 12:42 51.80507 5.15625 36212 ft 450 kts 311°
2026-04-17 12:43 51.84814 5.08244 36211 ft 450 kts 311°
2026-04-17 12:43 51.89117 5.00847 36209 ft 450 kts 311°
2026-04-17 12:44 51.93390 4.93419 36205 ft 449 kts 310°
2026-04-17 12:44 51.97625 4.85953 36204 ft 449 kts 310°
2026-04-17 12:45 52.01845 4.78541 36204 ft 450 kts 310°
2026-04-17 12:45 52.05372 4.72304 36211 ft 451 kts 310°
2026-04-17 12:46 52.09629 4.64775 36207 ft 452 kts 310°
2026-04-17 12:46 52.13876 4.57232 36208 ft 451 kts 310°
2026-04-17 12:47 52.18086 4.49735 36210 ft 450 kts 309°
2026-04-17 12:47 52.22309 4.42191 36208 ft 448 kts 309°
2026-04-17 12:48 52.26476 4.34724 36208 ft 447 kts 309°
2026-04-17 12:48 52.30674 4.27179 36210 ft 448 kts 309°
2026-04-17 12:49 52.34868 4.19619 36215 ft 449 kts 309°
2026-04-17 12:49 52.39060 4.12039 36214 ft 450 kts 309°
2026-04-17 12:50 52.43242 4.04455 36214 ft 450 kts 309°
2026-04-17 12:50 52.47422 3.96853 36218 ft 451 kts 308°
2026-04-17 12:51 52.51637 3.89160 36213 ft 449 kts 308°
2026-04-17 12:51 52.55782 3.81572 36205 ft 448 kts 308°
2026-04-17 12:52 52.59944 3.73929 36197 ft 447 kts 308°
2026-04-17 12:52 52.64105 3.66266 36186 ft 447 kts 308°
2026-04-17 12:53 52.68219 3.58664 36180 ft 448 kts 308°
2026-04-17 12:53 52.72384 3.50949 36195 ft 450 kts 308°
2026-04-17 12:54 52.76551 3.43199 36179 ft 451 kts 307°
2026-04-17 12:54 52.80719 3.35429 36165 ft 451 kts 307°
2026-04-17 12:55 52.84851 3.27698 36162 ft 451 kts 307°
2026-04-17 12:55 52.88983 3.19890 36178 ft 448 kts 303°
2026-04-17 12:56 52.91989 3.11063 36181 ft 440 kts 287°
2026-04-17 12:56 52.93498 3.01278 36194 ft 439 kts 280°
2026-04-17 12:57 52.94809 2.91322 36194 ft 441 kts 280°
2026-04-17 12:57 52.96103 2.81402 36185 ft 441 kts 280°
2026-04-17 12:58 52.97388 2.71509 36182 ft 440 kts 279°
2026-04-17 12:58 52.98666 2.61578 36172 ft 438 kts 279°
2026-04-17 12:59 52.99931 2.51696 36177 ft 438 kts 279°
2026-04-17 12:59 53.01183 2.41823 36172 ft 440 kts 279°
2026-04-17 13:00 53.02444 2.31834 36171 ft 441 kts 279°
2026-04-17 13:00 53.03685 2.21915 36164 ft 440 kts 278°
2026-04-17 13:01 53.04922 2.11956 36163 ft 438 kts 278°
2026-04-17 13:01 53.06141 2.02079 36164 ft 438 kts 278°
2026-04-17 13:02 53.07359 1.92122 36155 ft 442 kts 278°
2026-04-17 13:02 53.08581 1.82079 36151 ft 443 kts 278°
2026-04-17 13:03 53.09795 1.72009 36149 ft 443 kts 277°
2026-04-17 13:03 53.10995 1.61985 36143 ft 442 kts 277°
2026-04-17 13:04 53.12183 1.51986 36160 ft 442 kts 277°
2026-04-17 13:04 53.13367 1.41938 36137 ft 444 kts 277°
2026-04-17 13:05 53.14551 1.31823 36136 ft 444 kts 277°
2026-04-17 13:05 53.15725 1.21706 36125 ft 442 kts 276°
2026-04-17 13:06 53.16879 1.11688 36128 ft 441 kts 276°
2026-04-17 13:06 53.18026 1.01652 36148 ft 440 kts 276°
2026-04-17 13:07 53.19167 0.91585 36112 ft 441 kts 275°
2026-04-17 13:07 53.20300 0.81509 36111 ft 442 kts 275°
2026-04-17 13:08 53.21418 0.71491 36100 ft 442 kts 275°
2026-04-17 13:08 53.22538 0.61374 36113 ft 442 kts 275°
2026-04-17 13:09 53.23642 0.51312 36108 ft 442 kts 275°
2026-04-17 13:09 53.25614 0.41425 36133 ft 458 kts 291°
2026-04-17 13:10 53.29228 0.32569 36099 ft 467 kts 300°
2026-04-17 13:10 53.33179 0.23917 36101 ft 467 kts 300°
2026-04-17 13:11 53.37116 0.15289 36085 ft 466 kts 300°
2026-04-17 13:11 53.41029 0.06671 36087 ft 466 kts 300°
2026-04-17 13:12 53.44955 -0.01997 36080 ft 466 kts 299°
2026-04-17 13:12 53.50875 -0.15131 36061 ft 471 kts 299°
2026-04-17 13:13 53.54794 -0.23860 36052 ft 468 kts 299°
2026-04-17 13:13 53.59270 -0.32021 36070 ft 484 kts 314°
2026-04-17 13:14 53.64825 -0.38551 36057 ft 490 kts 317°
2026-04-17 13:14 53.70460 -0.45038 36058 ft 490 kts 317°
2026-04-17 13:15 53.76096 -0.51567 36054 ft 491 kts 317°
2026-04-17 13:15 53.81719 -0.58086 36056 ft 489 kts 317°
2026-04-17 13:16 53.87330 -0.64628 36039 ft 489 kts 317°
2026-04-17 13:16 53.92906 -0.71141 36039 ft 490 kts 317°
2026-04-17 13:17 53.98495 -0.77795 36048 ft 485 kts 311°
2026-04-17 13:17 54.02932 -0.86074 36044 ft 465 kts 294°
2026-04-17 13:18 54.05633 -0.95825 36037 ft 451 kts 282°
2026-04-17 13:18 54.07688 -1.05872 36064 ft 453 kts 281°
2026-04-17 13:19 54.09737 -1.16043 36017 ft 454 kts 281°
2026-04-17 13:19 54.11784 -1.26204 36019 ft 453 kts 281°
2026-04-17 13:20 54.13819 -1.36383 36007 ft 452 kts 281°
2026-04-17 13:20 54.15841 -1.46539 35998 ft 452 kts 281°
2026-04-17 13:21 54.17854 -1.56710 36001 ft 453 kts 281°
2026-04-17 13:21 54.19867 -1.66929 35999 ft 456 kts 280°
2026-04-17 13:22 54.21884 -1.77218 36003 ft 456 kts 280°
2026-04-17 13:22 54.23875 -1.87440 35981 ft 457 kts 280°
2026-04-17 13:23 54.25875 -1.97754 35991 ft 457 kts 280°
2026-04-17 13:23 54.27870 -2.08105 35975 ft 456 kts 280°
2026-04-17 13:24 54.29862 -2.18498 35990 ft 459 kts 279°
2026-04-17 13:24 54.31850 -2.28915 35992 ft 460 kts 279°
2026-04-17 13:25 54.33816 -2.39282 35990 ft 459 kts 279°
2026-04-17 13:25 54.35783 -2.49713 35993 ft 460 kts 279°
2026-04-17 13:26 54.37748 -2.60182 35992 ft 460 kts 279°
2026-04-17 13:26 54.39700 -2.70650 35987 ft 462 kts 279°
2026-04-17 13:27 54.41639 -2.81103 35985 ft 461 kts 279°
2026-04-17 13:27 54.43577 -2.91608 35985 ft 461 kts 279°
2026-04-17 13:28 54.45510 -3.02149 35987 ft 463 kts 279°
2026-04-17 13:28 54.47435 -3.12695 35989 ft 462 kts 279°
2026-04-17 13:29 54.49028 -3.21494 36029 ft 464 kts 279°
2026-04-17 13:29 54.50953 -3.32153 35963 ft 468 kts 279°
2026-04-17 13:30 54.53187 -3.44608 35962 ft 468 kts 279°
2026-04-17 13:30 54.54776 -3.53523 35968 ft 468 kts 279°
2026-04-17 13:31 54.56678 -3.64250 35969 ft 468 kts 279°
2026-04-17 13:31 54.58571 -3.74985 35950 ft 468 kts 279°
2026-04-17 13:32 54.60459 -3.85769 35949 ft 470 kts 279°
2026-04-17 13:32 54.62331 -3.96508 35941 ft 469 kts 279°
2026-04-17 13:33 54.64196 -4.07288 35936 ft 468 kts 279°
2026-04-17 13:33 54.66041 -4.18006 35928 ft 467 kts 279°
2026-04-17 13:34 54.67888 -4.28810 35937 ft 467 kts 279°
2026-04-17 13:34 54.69738 -4.39700 35914 ft 473 kts 279°
2026-04-17 13:35 54.71589 -4.50638 35912 ft 473 kts 279°
2026-04-17 13:35 54.73411 -4.61503 35914 ft 473 kts 279°
2026-04-17 13:36 54.75239 -4.72455 35912 ft 473 kts 279°
2026-04-17 13:36 54.77052 -4.83394 35894 ft 472 kts 279°
2026-04-17 13:37 54.78860 -4.94371 35892 ft 474 kts 279°
2026-04-17 13:37 54.80653 -5.05318 35888 ft 475 kts 279°
2026-04-17 13:38 54.82444 -5.16331 35890 ft 474 kts 279°
2026-04-17 13:38 54.84229 -5.27379 35874 ft 474 kts 279°
2026-04-17 13:39 54.86002 -5.38420 35868 ft 474 kts 279°
2026-04-17 13:39 54.87753 -5.49403 35853 ft 475 kts 279°
2026-04-17 13:40 54.89510 -5.60488 35852 ft 477 kts 279°
2026-04-17 13:40 54.91262 -5.71618 35855 ft 477 kts 279°
2026-04-17 13:41 54.93004 -5.82764 35849 ft 477 kts 279°
2026-04-17 13:41 54.94735 -5.93907 35840 ft 477 kts 279°
2026-04-17 13:42 54.96456 -6.05065 35836 ft 476 kts 279°
2026-04-17 13:42 54.98152 -6.16134 35828 ft 476 kts 279°
2026-04-17 13:43 54.99849 -6.27286 35829 ft 476 kts 279°
2026-04-17 13:43 55.01537 -6.38454 35819 ft 476 kts 279°
2026-04-17 13:44 55.03214 -6.49631 35822 ft 476 kts 278°
2026-04-17 13:44 55.04883 -6.60827 35813 ft 477 kts 279°
2026-04-17 13:45 55.06533 -6.71976 35806 ft 478 kts 278°
2026-04-17 13:45 55.08185 -6.83214 35785 ft 479 kts 279°
2026-04-17 13:46 55.09834 -6.94513 35786 ft 480 kts 279°
2026-04-17 13:46 55.11468 -7.05787 35780 ft 478 kts 278°
2026-04-17 13:47 55.13090 -7.17076 35790 ft 478 kts 278°
2026-04-17 13:47 55.14692 -7.28290 35784 ft 479 kts 278°
2026-04-17 13:48 55.16295 -7.39594 35779 ft 478 kts 278°
2026-04-17 13:48 55.17887 -7.50908 35765 ft 478 kts 278°
2026-04-17 13:49 55.19467 -7.62218 35758 ft 478 kts 278°
2026-04-17 13:49 55.21034 -7.73521 35777 ft 478 kts 278°
2026-04-17 13:50 55.22585 -7.84796 35747 ft 480 kts 278°
2026-04-17 13:50 55.24142 -7.96189 35746 ft 480 kts 278°
2026-04-17 13:51 55.25689 -8.07599 35759 ft 481 kts 278°
2026-04-17 13:51 55.27229 -8.19054 35756 ft 482 kts 278°
2026-04-17 13:52 55.28759 -8.30513 35788 ft 482 kts 278°
2026-04-17 13:52 55.30076 -8.40454 35744 ft 481 kts 278°
2026-04-17 13:53 55.31585 -8.51920 35726 ft 481 kts 278°
2026-04-17 13:53 55.33080 -8.63383 35727 ft 481 kts 278°
2026-04-17 13:54 55.35304 -8.80595 35722 ft 481 kts 278°
2026-04-17 13:55 55.37491 -8.97720 35703 ft 479 kts 277°
2026-04-17 13:56 55.40381 -9.20683 35696 ft 481 kts 278°
2026-04-17 13:56 55.41809 -9.32173 35697 ft 479 kts 277°
2026-04-17 13:57 55.43227 -9.43681 35669 ft 480 kts 278°
2026-04-17 13:58 55.45329 -9.60891 35661 ft 479 kts 277°
2026-04-17 13:58 55.47402 -9.78125 35663 ft 481 kts 278°
2026-04-17 13:59 55.49459 -9.95393 35636 ft 480 kts 277°
2026-04-17 14:00 55.50825 -10.06882 35648 ft 479 kts 278°
2026-04-17 14:00 55.52239 -10.18437 35642 ft 482 kts 278°
2026-04-17 14:01 55.53612 -10.29987 35622 ft 479 kts 277°
2026-04-17 14:01 55.54974 -10.41443 35621 ft 480 kts 277°
2026-04-17 14:02 55.56333 -10.53015 35610 ft 482 kts 278°
2026-04-17 14:02 55.57684 -10.64579 35621 ft 479 kts 277°
2026-04-17 14:03 55.59015 -10.76116 35617 ft 479 kts 277°
2026-04-17 14:03 55.60340 -10.87680 35617 ft 480 kts 278°
2026-04-17 14:04 55.61647 -10.99186 35608 ft 479 kts 277°
2026-04-17 14:04 55.62946 -11.10740 35610 ft 479 kts 277°
2026-04-17 14:05 55.64242 -11.22357 35611 ft 482 kts 277°
2026-04-17 14:05 55.65524 -11.33966 35612 ft 478 kts 278°
2026-04-17 14:06 55.66785 -11.45485 35614 ft 479 kts 278°
2026-04-17 14:06 55.68054 -11.57182 35621 ft 486 kts 277°
2026-04-17 14:07 55.69312 -11.68877 35619 ft 484 kts 277°
2026-04-17 14:07 55.70560 -11.80634 35618 ft 486 kts 277°
2026-04-17 14:08 55.71808 -11.92451 35620 ft 486 kts 277°
2026-04-17 14:08 55.73039 -12.04256 35610 ft 485 kts 277°
2026-04-17 14:09 55.74254 -12.16025 35610 ft 488 kts 277°
2026-04-17 14:09 55.75474 -12.27927 35621 ft 488 kts 276°
2026-04-17 14:10 55.76663 -12.39679 35614 ft 485 kts 277°
2026-04-17 14:10 55.77851 -12.51530 35621 ft 489 kts 277°
2026-04-17 14:11 55.79034 -12.63421 35620 ft 486 kts 276°
2026-04-17 14:11 55.80187 -12.75180 35628 ft 486 kts 276°
2026-04-17 14:12 55.81345 -12.87077 35631 ft 488 kts 276°
2026-04-17 14:12 55.82488 -12.98961 35639 ft 485 kts 276°
2026-04-17 14:13 55.84170 -13.16689 35631 ft 488 kts 277°
2026-04-17 14:13 55.85284 -13.28566 35638 ft 485 kts 276°
2026-04-17 14:14 55.86383 -13.40449 35632 ft 487 kts 276°
2026-04-17 14:14 55.87479 -13.52388 35646 ft 488 kts 276°
2026-04-17 14:15 55.88555 -13.64284 35634 ft 484 kts 275°
2026-04-17 14:15 55.89621 -13.76175 35645 ft 487 kts 276°
2026-04-17 14:16 55.90672 -13.88034 35644 ft 486 kts 276°
2026-04-17 14:16 55.91712 -13.99921 35652 ft 485 kts 275°
2026-04-17 14:17 55.92570 -14.09824 35651 ft 489 kts 276°
2026-04-17 14:17 55.93596 -14.21783 35654 ft 486 kts 275°
2026-04-17 14:18 55.94603 -14.33701 35644 ft 486 kts 276°
2026-04-17 14:18 55.95607 -14.45668 35662 ft 488 kts 276°
2026-04-17 14:19 55.96594 -14.57609 35662 ft 485 kts 276°
2026-04-17 14:19 55.97570 -14.69573 35662 ft 488 kts 276°
2026-04-17 14:20 55.98535 -14.81515 35671 ft 487 kts 275°
2026-04-17 14:20 55.99486 -14.93475 35707 ft 487 kts 275°
2026-04-17 14:21 56.00068 -14.99454 35836 ft 490 kts 283°
2026-04-17 14:21 56.01181 -15.05221 35968 ft 493 kts 289°
2026-04-17 14:21 56.02455 -15.10924 36138 ft 493 kts 289°
2026-04-17 14:21 56.03739 -15.16634 36276 ft 494 kts 289°
2026-04-17 14:22 56.05025 -15.22339 36452 ft 494 kts 289°
2026-04-17 14:22 56.06296 -15.28043 36679 ft 493 kts 289°
2026-04-17 14:22 56.07563 -15.33758 36806 ft 494 kts 288°
2026-04-17 14:22 56.08830 -15.39472 37036 ft 493 kts 289°
2026-04-17 14:23 56.11357 -15.50879 37327 ft 494 kts 288°
2026-04-17 14:23 56.12616 -15.56613 37494 ft 494 kts 288°
2026-04-17 14:23 56.13875 -15.62363 37630 ft 495 kts 289°
2026-04-17 14:24 56.15140 -15.68128 37743 ft 496 kts 289°
2026-04-17 14:24 56.16389 -15.73835 37955 ft 495 kts 288°
2026-04-17 14:24 56.17639 -15.79583 38181 ft 494 kts 288°
2026-04-17 14:24 56.18884 -15.85338 38289 ft 495 kts 288°
2026-04-17 14:25 56.20137 -15.91119 38398 ft 496 kts 288°
2026-04-17 14:25 56.21381 -15.96871 38643 ft 492 kts 288°
2026-04-17 14:25 56.23840 -16.08320 38668 ft 492 kts 288°
2026-04-17 14:26 56.26045 -16.18624 38671 ft 493 kts 288°
2026-04-17 14:26 56.28495 -16.30155 38700 ft 493 kts 288°
2026-04-17 14:27 56.30949 -16.41745 38699 ft 494 kts 287°
2026-04-17 14:27 56.33373 -16.53281 38697 ft 492 kts 287°
2026-04-17 14:28 56.35772 -16.64750 38710 ft 489 kts 287°
2026-04-17 14:28 56.38160 -16.76254 38690 ft 490 kts 288°
2026-04-17 14:29 56.40556 -16.87832 38710 ft 491 kts 288°
2026-04-17 14:29 56.42930 -16.99382 38721 ft 495 kts 287°
2026-04-17 14:30 56.45307 -17.11007 38727 ft 489 kts 286°
2026-04-17 14:30 56.47655 -17.22574 38713 ft 490 kts 287°
2026-04-17 14:31 56.49978 -17.34071 38714 ft 488 kts 286°
2026-04-17 14:31 56.52306 -17.45671 38727 ft 491 kts 286°
2026-04-17 14:32 56.54624 -17.57292 38728 ft 492 kts 288°
2026-04-17 14:32 56.56940 -17.68943 38747 ft 493 kts 287°
2026-04-17 14:33 56.59234 -17.80592 38739 ft 490 kts 287°
2026-04-17 14:33 56.61512 -17.92203 38740 ft 486 kts 287°
2026-04-17 14:34 56.63779 -18.03840 38735 ft 490 kts 287°
2026-04-17 14:34 56.66045 -18.15528 38738 ft 491 kts 286°
2026-04-17 14:35 56.68297 -18.27221 38757 ft 494 kts 287°
2026-04-17 14:35 56.70548 -18.38973 38749 ft 490 kts 286°
2026-04-17 14:36 56.72774 -18.50675 38767 ft 486 kts 285°
2026-04-17 14:36 56.74974 -18.62323 38757 ft 488 kts 286°
2026-04-17 14:37 56.77171 -18.74005 38753 ft 490 kts 287°
2026-04-17 14:37 56.79382 -18.85841 38777 ft 494 kts 287°
2026-04-17 14:38 56.81580 -18.97689 38768 ft 492 kts 285°
2026-04-17 14:38 56.83748 -19.09427 38783 ft 489 kts 285°
2026-04-17 14:39 56.85905 -19.21208 38787 ft 490 kts 285°
2026-04-17 14:39 56.88060 -19.33032 38782 ft 491 kts 286°
2026-04-17 14:40 56.90221 -19.44967 38795 ft 493 kts 285°
2026-04-17 14:40 56.92355 -19.56840 38796 ft 491 kts 285°
2026-04-17 14:41 56.94469 -19.68669 38799 ft 489 kts 285°
2026-04-17 14:41 56.96584 -19.80578 38810 ft 492 kts 284°
2026-04-17 14:42 56.98677 -19.92445 38817 ft 493 kts 285°
2026-04-17 14:42 57.00635 -20.04490 38812 ft 489 kts 282°
2026-04-17 14:43 57.02370 -20.16582 38812 ft 487 kts 281°
2026-04-17 14:43 57.04056 -20.28562 38828 ft 489 kts 282°
2026-04-17 14:44 57.05756 -20.40693 38826 ft 492 kts 282°
2026-04-17 14:44 57.07450 -20.52864 38837 ft 491 kts 281°
2026-04-17 14:45 57.09120 -20.64984 38833 ft 486 kts 282°
2026-04-17 14:45 57.10777 -20.77094 38841 ft 489 kts 282°
2026-04-17 14:46 57.12426 -20.89220 38845 ft 491 kts 281°
2026-04-17 14:46 57.14065 -21.01399 38840 ft 488 kts 281°
2026-04-17 14:47 57.15686 -21.13538 38853 ft 488 kts 281°
2026-04-17 14:47 57.17300 -21.25723 38854 ft 490 kts 282°
2026-04-17 14:48 57.18894 -21.37840 38859 ft 486 kts 281°
2026-04-17 14:48 57.20468 -21.49927 38852 ft 484 kts 280°
2026-04-17 14:49 57.22039 -21.62077 38855 ft 488 kts 281°
2026-04-17 14:49 57.23613 -21.74345 38870 ft 490 kts 281°
2026-04-17 14:50 57.25158 -21.86501 38867 ft 487 kts 280°
2026-04-17 14:50 57.26689 -21.98655 38877 ft 486 kts 281°
2026-04-17 14:51 57.28217 -22.10873 38879 ft 489 kts 281°
2026-04-17 14:51 57.29732 -22.23102 38877 ft 486 kts 280°
2026-04-17 14:52 57.31216 -22.35194 38870 ft 485 kts 281°
2026-04-17 14:52 57.32705 -22.47417 38876 ft 489 kts 281°
2026-04-17 14:53 57.34195 -22.59754 38880 ft 488 kts 280°
2026-04-17 14:53 57.35658 -22.71989 38882 ft 484 kts 280°
2026-04-17 14:54 57.37097 -22.84121 38886 ft 485 kts 280°
2026-04-17 14:54 57.38537 -22.96372 38886 ft 486 kts 280°
2026-04-17 14:55 57.39962 -23.08610 38894 ft 485 kts 280°
2026-04-17 14:55 57.41376 -23.20870 38889 ft 486 kts 280°
2026-04-17 14:56 57.42781 -23.33157 38911 ft 487 kts 280°
2026-04-17 14:56 57.44167 -23.45387 38899 ft 485 kts 280°
2026-04-17 14:57 57.45544 -23.57665 38897 ft 484 kts 280°
2026-04-17 14:57 57.46908 -23.69928 38899 ft 484 kts 279°
2026-04-17 14:58 57.48252 -23.82139 38897 ft 484 kts 279°
2026-04-17 14:58 57.49592 -23.94423 38897 ft 484 kts 279°
2026-04-17 14:59 57.50918 -24.06701 38900 ft 484 kts 279°
2026-04-17 14:59 57.52222 -24.18893 38894 ft 482 kts 279°
2026-04-17 15:00 57.53520 -24.31144 38902 ft 482 kts 279°
2026-04-17 15:00 57.54810 -24.43445 38905 ft 484 kts 279°
2026-04-17 15:01 57.56083 -24.55705 38899 ft 485 kts 279°
2026-04-17 15:01 57.57352 -24.68050 38898 ft 484 kts 279°
2026-04-17 15:02 57.58606 -24.80377 38897 ft 483 kts 279°
2026-04-17 15:02 57.59845 -24.92677 38885 ft 481 kts 278°
2026-04-17 15:03 57.61066 -25.04930 38884 ft 480 kts 278°
2026-04-17 15:03 57.62072 -25.15112 38882 ft 480 kts 278°
2026-04-17 15:04 57.63465 -25.29374 38888 ft 481 kts 278°
2026-04-17 15:04 57.64462 -25.39690 38895 ft 483 kts 278°
2026-04-17 15:05 57.65639 -25.51985 38892 ft 484 kts 278°
2026-04-17 15:05 57.66812 -25.64374 38894 ft 483 kts 278°
2026-04-17 15:06 57.67967 -25.76711 38888 ft 481 kts 278°
2026-04-17 15:06 57.69107 -25.89026 38880 ft 480 kts 278°
2026-04-17 15:07 57.70235 -26.01343 38881 ft 480 kts 278°
2026-04-17 15:07 57.71352 -26.13671 38878 ft 481 kts 277°
2026-04-17 15:08 57.72459 -26.26044 38886 ft 483 kts 277°
2026-04-17 15:08 57.73553 -26.38403 38890 ft 483 kts 277°
2026-04-17 15:09 57.74638 -26.50801 38879 ft 482 kts 277°
2026-04-17 15:09 57.75710 -26.63209 38883 ft 482 kts 277°
2026-04-17 15:10 57.76771 -26.75631 38883 ft 483 kts 277°
2026-04-17 15:11 57.78335 -26.94221 38877 ft 482 kts 277°
2026-04-17 15:11 57.79365 -27.06658 38877 ft 482 kts 277°
2026-04-17 15:12 57.80379 -27.19044 38873 ft 477 kts 277°
2026-04-17 15:12 57.81370 -27.31314 38872 ft 478 kts 277°
2026-04-17 15:13 57.82356 -27.43665 38875 ft 479 kts 276°
2026-04-17 15:13 57.83329 -27.56017 38873 ft 478 kts 276°
2026-04-17 15:14 57.84292 -27.68403 38863 ft 480 kts 276°
2026-04-17 15:14 57.85243 -27.80788 38867 ft 479 kts 276°
2026-04-17 15:15 57.86174 -27.93081 38870 ft 476 kts 276°
2026-04-17 15:15 57.87096 -28.05422 38860 ft 476 kts 276°
2026-04-17 15:16 57.88005 -28.17761 38860 ft 476 kts 276°
2026-04-17 15:16 57.88898 -28.30041 38860 ft 477 kts 276°
2026-04-17 15:17 57.89787 -28.42432 38858 ft 477 kts 276°
2026-04-17 15:17 57.90660 -28.54784 38861 ft 476 kts 276°
2026-04-17 15:18 57.91522 -28.67143 38854 ft 475 kts 276°
2026-04-17 15:18 57.92364 -28.79395 38855 ft 474 kts 275°
2026-04-17 15:19 57.93197 -28.91704 38859 ft 474 kts 275°
2026-04-17 15:19 57.94021 -29.04052 38858 ft 475 kts 275°
2026-04-17 15:20 57.94827 -29.16319 38858 ft 474 kts 275°
2026-04-17 15:20 57.95625 -29.28655 38853 ft 475 kts 275°
2026-04-17 15:21 57.96413 -29.41026 38860 ft 474 kts 275°
2026-04-17 15:21 57.97185 -29.53329 38857 ft 473 kts 275°
2026-04-17 15:22 57.97948 -29.65686 38862 ft 476 kts 275°
2026-04-17 15:22 57.98700 -29.78059 38864 ft 474 kts 275°
2026-04-17 15:23 57.99437 -29.90402 38864 ft 474 kts 275°
2026-04-17 15:23 58.00109 -30.02820 38878 ft 473 kts 272°
2026-04-17 15:24 58.00587 -30.15120 38865 ft 472 kts 273°
2026-04-17 15:24 58.01054 -30.27484 38873 ft 473 kts 272°
2026-04-17 15:25 58.01504 -30.39864 38869 ft 471 kts 272°
2026-04-17 15:25 58.01949 -30.52246 38867 ft 473 kts 272°
2026-04-17 15:26 58.02376 -30.64623 38878 ft 473 kts 272°
2026-04-17 15:26 58.02792 -30.76938 38878 ft 472 kts 272°
2026-04-17 15:27 58.03198 -30.89333 38883 ft 470 kts 272°
2026-04-17 15:27 58.03587 -31.01562 38878 ft 464 kts 272°
2026-04-17 15:28 58.03962 -31.13764 38876 ft 466 kts 272°
2026-04-17 15:28 58.04325 -31.25922 38891 ft 467 kts 272°
2026-04-17 15:29 58.04679 -31.38203 38889 ft 468 kts 271°
2026-04-17 15:29 58.05022 -31.50452 38892 ft 468 kts 271°
2026-04-17 15:30 58.05352 -31.62712 38892 ft 467 kts 271°
2026-04-17 15:30 58.05669 -31.74892 38889 ft 463 kts 271°
2026-04-17 15:31 58.05972 -31.87052 38888 ft 463 kts 271°
2026-04-17 15:31 58.06265 -31.99202 38890 ft 463 kts 271°
2026-04-17 15:32 58.06546 -32.11368 38889 ft 463 kts 271°
2026-04-17 15:32 58.06816 -32.23543 38894 ft 463 kts 271°
2026-04-17 15:33 58.07072 -32.35640 38887 ft 465 kts 270°
2026-04-17 15:33 58.07317 -32.47730 38886 ft 464 kts 270°
2026-04-17 15:34 58.07553 -32.59935 38881 ft 464 kts 270°
2026-04-17 15:34 58.07776 -32.72132 38881 ft 464 kts 270°
2026-04-17 15:35 58.07988 -32.84325 38878 ft 464 kts 270°
2026-04-17 15:35 58.08187 -32.96438 38875 ft 464 kts 270°
2026-04-17 15:36 58.08376 -33.08632 38877 ft 463 kts 270°
2026-04-17 15:36 58.08553 -33.20819 38877 ft 463 kts 270°
2026-04-17 15:37 58.08718 -33.32997 38882 ft 463 kts 270°
2026-04-17 15:37 58.08871 -33.45183 38884 ft 465 kts 270°
2026-04-17 15:38 58.09013 -33.57353 38892 ft 466 kts 269°
2026-04-17 15:38 58.09144 -33.69626 38891 ft 467 kts 269°
2026-04-17 15:39 58.09264 -33.81913 38886 ft 467 kts 269°
2026-04-17 15:39 58.09372 -33.94162 38882 ft 463 kts 269°
2026-04-17 15:40 58.09466 -34.06291 38880 ft 462 kts 269°
2026-04-17 15:40 58.09550 -34.18471 38881 ft 462 kts 269°
2026-04-17 15:41 58.09621 -34.30567 38872 ft 462 kts 269°
2026-04-17 15:41 58.09682 -34.42739 38872 ft 462 kts 269°
2026-04-17 15:42 58.09730 -34.54854 38883 ft 463 kts 269°
2026-04-17 15:42 58.09767 -34.67010 38865 ft 460 kts 269°
2026-04-17 15:43 58.09793 -34.79120 38870 ft 460 kts 269°
2026-04-17 15:43 58.09807 -34.91161 38871 ft 460 kts 269°
2026-04-17 15:44 58.09810 -35.03197 38871 ft 460 kts 268°
2026-04-17 15:44 58.09801 -35.15326 38870 ft 460 kts 268°
2026-04-17 15:45 58.09780 -35.27462 38871 ft 460 kts 268°
2026-04-17 15:45 58.09749 -35.39496 38867 ft 459 kts 268°
2026-04-17 15:46 58.09706 -35.51551 38865 ft 457 kts 268°
2026-04-17 15:46 58.09651 -35.63618 38875 ft 460 kts 268°
2026-04-17 15:47 58.09597 -35.73691 38878 ft 461 kts 268°
2026-04-17 15:47 58.09522 -35.85824 38877 ft 461 kts 268°
2026-04-17 15:48 58.09434 -35.97982 38870 ft 461 kts 268°
2026-04-17 15:48 58.09336 -36.10037 38859 ft 461 kts 268°
2026-04-17 15:49 58.09226 -36.22140 38854 ft 458 kts 268°
2026-04-17 15:49 58.09105 -36.34193 38854 ft 458 kts 268°
2026-04-17 15:50 58.08973 -36.46169 38848 ft 458 kts 268°
2026-04-17 15:50 58.08829 -36.58235 38852 ft 458 kts 267°
2026-04-17 15:51 58.08674 -36.70321 38861 ft 460 kts 267°
2026-04-17 15:51 58.08506 -36.82427 38855 ft 461 kts 267°
2026-04-17 15:52 58.08329 -36.94456 38862 ft 461 kts 267°
2026-04-17 15:52 58.08138 -37.06603 38864 ft 461 kts 267°
2026-04-17 15:53 58.07936 -37.18721 38862 ft 461 kts 267°
2026-04-17 15:53 58.07724 -37.30785 38852 ft 461 kts 267°
2026-04-17 15:54 58.07498 -37.42926 38858 ft 461 kts 267°
2026-04-17 15:54 58.07261 -37.55060 38858 ft 461 kts 266°
2026-04-17 15:55 58.07016 -37.67077 38867 ft 457 kts 266°
2026-04-17 15:55 58.06758 -37.79084 38847 ft 457 kts 266°
2026-04-17 15:56 58.06490 -37.91087 38840 ft 458 kts 266°
2026-04-17 15:56 58.06210 -38.03125 38840 ft 458 kts 266°
2026-04-17 15:57 58.05920 -38.15084 38836 ft 458 kts 266°
2026-04-17 15:57 58.05617 -38.27106 38831 ft 458 kts 266°
2026-04-17 15:58 58.05303 -38.39118 38839 ft 455 kts 266°
2026-04-17 15:58 58.04981 -38.51007 38838 ft 451 kts 266°
2026-04-17 15:59 58.04651 -38.62780 38833 ft 452 kts 266°
2026-04-17 15:59 58.04308 -38.74661 38845 ft 454 kts 265°
2026-04-17 16:00 58.03951 -38.86596 38843 ft 456 kts 265°
2026-04-17 16:00 58.03583 -38.98544 38836 ft 455 kts 265°
2026-04-17 16:01 58.03203 -39.10490 38825 ft 454 kts 265°
2026-04-17 16:01 58.02818 -39.22293 38825 ft 448 kts 265°
2026-04-17 16:02 58.02424 -39.33982 38820 ft 449 kts 265°
2026-04-17 16:02 58.02017 -39.45781 38812 ft 450 kts 265°
2026-04-17 16:03 58.01597 -39.57586 38820 ft 451 kts 264°
2026-04-17 16:03 58.01170 -39.69326 38822 ft 452 kts 264°
2026-04-17 16:04 58.00728 -39.81167 38832 ft 453 kts 264°
2026-04-17 16:04 58.00273 -39.93050 38808 ft 451 kts 264°
2026-04-17 16:05 57.99297 -40.04650 38831 ft 448 kts 253°
2026-04-17 16:05 57.97585 -40.15911 38825 ft 450 kts 253°
2026-04-17 16:06 57.95846 -40.27261 38826 ft 450 kts 253°
2026-04-17 16:06 57.94098 -40.38606 38817 ft 451 kts 253°
2026-04-17 16:07 57.92352 -40.49855 38815 ft 450 kts 253°
2026-04-17 16:07 57.90584 -40.61172 38826 ft 450 kts 253°
2026-04-17 16:08 57.88805 -40.72485 38821 ft 450 kts 253°
2026-04-17 16:08 57.87019 -40.83761 38829 ft 450 kts 253°
2026-04-17 16:09 57.85236 -40.94952 38829 ft 450 kts 253°
2026-04-17 16:09 57.83428 -41.06222 38817 ft 449 kts 253°
2026-04-17 16:10 57.81617 -41.17443 38810 ft 449 kts 253°
2026-04-17 16:10 57.79810 -41.28563 38809 ft 448 kts 252°
2026-04-17 16:11 57.77987 -41.39713 38817 ft 447 kts 252°
2026-04-17 16:11 57.76153 -41.50857 38818 ft 448 kts 252°
2026-04-17 16:12 57.74301 -41.62036 38818 ft 450 kts 252°
2026-04-17 16:12 57.72433 -41.73246 38819 ft 451 kts 252°
2026-04-17 16:13 57.70551 -41.84465 38826 ft 452 kts 252°
2026-04-17 16:13 57.68671 -41.95603 38818 ft 450 kts 252°
2026-04-17 16:14 57.65829 -42.12311 38822 ft 449 kts 252°
2026-04-17 16:14 57.63973 -42.23138 38821 ft 447 kts 252°
2026-04-17 16:15 57.62072 -42.34164 38832 ft 444 kts 252°
2026-04-17 16:15 57.60163 -42.45167 38823 ft 447 kts 252°
2026-04-17 16:16 57.58235 -42.56212 38824 ft 447 kts 252°
2026-04-17 16:16 57.56298 -42.67241 38835 ft 448 kts 252°
2026-04-17 16:17 57.54350 -42.78268 38851 ft 448 kts 252°
2026-04-17 16:17 57.52405 -42.89208 38842 ft 448 kts 251°
2026-04-17 16:18 57.50436 -43.00225 38837 ft 448 kts 251°
2026-04-17 16:18 57.48460 -43.11211 38834 ft 447 kts 251°
2026-04-17 16:19 57.46480 -43.22153 38835 ft 446 kts 251°
2026-04-17 16:19 57.44496 -43.33059 38841 ft 445 kts 251°
2026-04-17 16:20 57.42514 -43.43885 38829 ft 445 kts 251°
2026-04-17 16:20 57.40510 -43.54772 38833 ft 445 kts 251°
2026-04-17 16:21 57.38496 -43.65650 38831 ft 444 kts 251°
2026-04-17 16:21 57.36493 -43.76406 38836 ft 444 kts 251°
2026-04-17 16:22 57.34463 -43.87242 38836 ft 446 kts 251°
2026-04-17 16:22 57.32414 -43.98120 38852 ft 447 kts 251°
2026-04-17 16:23 57.30365 -44.08938 38842 ft 448 kts 251°
2026-04-17 16:23 57.28299 -44.19787 38843 ft 446 kts 251°
2026-04-17 16:24 57.26230 -44.30586 38846 ft 444 kts 251°
2026-04-17 16:24 57.24154 -44.41364 38851 ft 446 kts 251°
2026-04-17 16:25 57.22061 -44.52166 38858 ft 447 kts 250°
2026-04-17 16:25 57.19969 -44.62906 38854 ft 447 kts 250°
2026-04-17 16:26 57.17854 -44.73706 38845 ft 446 kts 250°
2026-04-17 16:26 57.15744 -44.84417 38840 ft 445 kts 250°
2026-04-17 16:27 57.13626 -44.95113 38841 ft 444 kts 250°
2026-04-17 16:27 57.11496 -45.05812 38837 ft 445 kts 250°
2026-04-17 16:28 57.09357 -45.16497 38845 ft 446 kts 250°
2026-04-17 16:28 57.07200 -45.27215 38824 ft 447 kts 250°
2026-04-17 16:29 57.05049 -45.37841 38847 ft 446 kts 250°
2026-04-17 16:29 57.02882 -45.48496 38844 ft 445 kts 250°
2026-04-17 16:30 57.00708 -45.59125 38849 ft 444 kts 250°
2026-04-17 16:30 56.98530 -45.69720 38852 ft 444 kts 250°
2026-04-17 16:31 56.96351 -45.80262 38853 ft 445 kts 250°
2026-04-17 16:31 56.94142 -45.90890 38847 ft 448 kts 250°
2026-04-17 16:32 56.91910 -46.01577 38847 ft 448 kts 250°
2026-04-17 16:32 56.89689 -46.12154 38849 ft 448 kts 250°
2026-04-17 16:33 56.87439 -46.22815 38852 ft 448 kts 250°
2026-04-17 16:33 56.85558 -46.31681 38858 ft 448 kts 250°
2026-04-17 16:34 56.83297 -46.42293 38850 ft 448 kts 250°
2026-04-17 16:34 56.81037 -46.52844 38855 ft 448 kts 249°
2026-04-17 16:35 56.78758 -46.63427 38857 ft 448 kts 249°
2026-04-17 16:35 56.76467 -46.74015 38857 ft 448 kts 249°
2026-04-17 16:36 56.74168 -46.84579 38857 ft 448 kts 249°
2026-04-17 16:36 56.71860 -46.95138 38861 ft 448 kts 249°
2026-04-17 16:37 56.69543 -47.05680 38839 ft 447 kts 249°
2026-04-17 16:37 56.67225 -47.16172 38839 ft 446 kts 249°
2026-04-17 16:38 56.64917 -47.26573 38876 ft 446 kts 249°
2026-04-17 16:38 56.62580 -47.37047 38859 ft 447 kts 249°
2026-04-17 16:39 56.60231 -47.47523 38859 ft 447 kts 249°
2026-04-17 16:39 56.57872 -47.57992 38841 ft 447 kts 249°
2026-04-17 16:40 56.55525 -47.68356 38847 ft 445 kts 249°
2026-04-17 16:40 56.53166 -47.78722 38846 ft 445 kts 249°
2026-04-17 16:41 56.50795 -47.89091 38853 ft 446 kts 249°
2026-04-17 16:41 56.48409 -47.99473 38856 ft 447 kts 248°
2026-04-17 16:42 56.46014 -48.09847 38836 ft 449 kts 248°
2026-04-17 16:42 56.43611 -48.20200 38846 ft 446 kts 248°
2026-04-17 16:43 56.41201 -48.30534 38847 ft 445 kts 248°
2026-04-17 16:43 56.38790 -48.40823 38850 ft 444 kts 248°
2026-04-17 16:44 56.36373 -48.51093 38850 ft 445 kts 248°
2026-04-17 16:44 56.33958 -48.61302 38850 ft 445 kts 248°
2026-04-17 16:45 56.31511 -48.71598 38867 ft 446 kts 248°
2026-04-17 16:45 56.29057 -48.81871 38868 ft 447 kts 248°
2026-04-17 16:46 56.26607 -48.92084 38872 ft 447 kts 248°
2026-04-17 16:46 56.24135 -49.02335 38869 ft 447 kts 248°
2026-04-17 16:47 56.21643 -49.12625 38870 ft 447 kts 248°
2026-04-17 16:47 56.19168 -49.22795 38854 ft 446 kts 248°
2026-04-17 16:48 56.16686 -49.32947 38853 ft 444 kts 248°
2026-04-17 16:48 56.14183 -49.43137 38850 ft 444 kts 248°
2026-04-17 16:49 56.11694 -49.53223 38855 ft 446 kts 248°
2026-04-17 16:49 56.09163 -49.63432 38860 ft 447 kts 247°
2026-04-17 16:50 56.06623 -49.73628 38848 ft 448 kts 247°
2026-04-17 16:50 56.04097 -49.83722 38856 ft 445 kts 247°
2026-04-17 16:51 56.01555 -49.93838 38855 ft 445 kts 247°
2026-04-17 16:51 55.99063 -50.03970 38855 ft 444 kts 248°
2026-04-17 16:52 55.96613 -50.14056 38876 ft 446 kts 248°
2026-04-17 16:52 55.94160 -50.24233 38871 ft 447 kts 248°
2026-04-17 16:53 55.91686 -50.34403 38854 ft 446 kts 248°
2026-04-17 16:53 55.89209 -50.44547 38852 ft 445 kts 248°
2026-04-17 16:54 55.86734 -50.54642 38861 ft 444 kts 248°
2026-04-17 16:54 55.84248 -50.64727 38864 ft 445 kts 248°
2026-04-17 16:55 55.81759 -50.74782 38868 ft 446 kts 248°
2026-04-17 16:55 55.79240 -50.84910 38869 ft 446 kts 248°
2026-04-17 16:56 55.76736 -50.94935 38870 ft 445 kts 248°
2026-04-17 16:56 55.74215 -51.04978 38867 ft 444 kts 248°
2026-04-17 16:57 55.71687 -51.15007 38866 ft 445 kts 248°
2026-04-17 16:57 55.69147 -51.25037 38868 ft 446 kts 248°
2026-04-17 16:58 55.66605 -51.35030 38892 ft 447 kts 247°
2026-04-17 16:58 55.64038 -51.45075 38865 ft 447 kts 247°
2026-04-17 16:59 55.61472 -51.55073 38865 ft 445 kts 247°
2026-04-17 16:59 55.58910 -51.65010 38867 ft 444 kts 247°
2026-04-17 17:00 55.56332 -51.74965 38868 ft 445 kts 247°
2026-04-17 17:00 55.53740 -51.84929 38877 ft 446 kts 247°
2026-04-17 17:01 55.51152 -51.94833 38877 ft 447 kts 247°
2026-04-17 17:01 55.48536 -52.04800 38878 ft 447 kts 247°
2026-04-17 17:02 55.45909 -52.14766 38871 ft 447 kts 247°
2026-04-17 17:02 55.43278 -52.24705 38870 ft 446 kts 247°
2026-04-17 17:03 55.40659 -52.34552 38867 ft 446 kts 247°
2026-04-17 17:03 55.38018 -52.44439 38873 ft 445 kts 247°
2026-04-17 17:04 55.35376 -52.54292 38873 ft 446 kts 247°
2026-04-17 17:04 55.32710 -52.64186 38878 ft 449 kts 246°
2026-04-17 17:05 55.30061 -52.73976 38878 ft 448 kts 246°
2026-04-17 17:05 55.27382 -52.83834 38874 ft 447 kts 246°
2026-04-17 17:06 55.24699 -52.93663 38882 ft 446 kts 246°
2026-04-17 17:06 55.22028 -53.03409 38880 ft 446 kts 246°
2026-04-17 17:07 55.19337 -53.13186 38883 ft 446 kts 246°
2026-04-17 17:07 55.16632 -53.22973 38883 ft 447 kts 246°
2026-04-17 17:08 55.13916 -53.32756 38885 ft 447 kts 246°
2026-04-17 17:08 55.11192 -53.42528 38887 ft 447 kts 246°
2026-04-17 17:09 55.08462 -53.52276 38881 ft 446 kts 246°
2026-04-17 17:09 55.05747 -53.61936 38880 ft 446 kts 246°
2026-04-17 17:10 55.02997 -53.71676 38885 ft 446 kts 246°
2026-04-17 17:10 55.00245 -53.81381 38883 ft 446 kts 246°
2026-04-17 17:11 54.97482 -53.91086 38902 ft 447 kts 246°
2026-04-17 17:11 54.94728 -54.00719 38892 ft 447 kts 246°
2026-04-17 17:12 54.91952 -54.10390 38892 ft 446 kts 246°
2026-04-17 17:12 54.89172 -54.20034 38892 ft 446 kts 246°
2026-04-17 17:13 54.86383 -54.29671 38897 ft 446 kts 246°
2026-04-17 17:13 54.83599 -54.39249 38900 ft 446 kts 246°
2026-04-17 17:14 54.80822 -54.48764 38898 ft 445 kts 246°
2026-04-17 17:15 54.76623 -54.63083 38897 ft 445 kts 246°
2026-04-17 17:15 54.73807 -54.72634 38902 ft 445 kts 246°
2026-04-17 17:16 54.70982 -54.82179 38902 ft 445 kts 245°
2026-04-17 17:16 54.68153 -54.91696 38907 ft 445 kts 245°
2026-04-17 17:17 54.65797 -54.99593 38910 ft 444 kts 245°
2026-04-17 17:17 54.62493 -55.10629 38919 ft 446 kts 245°
2026-04-17 17:18 54.60096 -55.18599 38917 ft 446 kts 245°
2026-04-17 17:18 54.57240 -55.28061 38929 ft 447 kts 245°
2026-04-17 17:19 54.54367 -55.37544 38928 ft 448 kts 245°
2026-04-17 17:19 54.51483 -55.47021 38922 ft 445 kts 245°
2026-04-17 17:20 54.48605 -55.56446 38917 ft 444 kts 245°
2026-04-17 17:20 54.45720 -55.65854 38918 ft 444 kts 245°
2026-04-17 17:21 54.42833 -55.75233 38920 ft 444 kts 245°
2026-04-17 17:21 54.39952 -55.84555 38921 ft 444 kts 245°
2026-04-17 17:22 54.37042 -55.93936 38936 ft 443 kts 245°
2026-04-17 17:22 54.34132 -56.03278 38943 ft 445 kts 245°
2026-04-17 17:23 54.31217 -56.12602 38939 ft 446 kts 245°
2026-04-17 17:23 54.28266 -56.22002 38946 ft 448 kts 245°
2026-04-17 17:24 54.25310 -56.31382 38945 ft 446 kts 245°
2026-04-17 17:24 54.22377 -56.40653 38918 ft 445 kts 245°
2026-04-17 17:25 54.19427 -56.49942 38938 ft 444 kts 245°
2026-04-17 17:25 54.16472 -56.59212 38941 ft 444 kts 245°
2026-04-17 17:26 54.13527 -56.68414 38950 ft 444 kts 245°
2026-04-17 17:26 54.10548 -56.77687 38949 ft 445 kts 245°
2026-04-17 17:27 54.07571 -56.86920 38953 ft 445 kts 245°
2026-04-17 17:27 54.04597 -56.96173 38957 ft 444 kts 248°
2026-04-17 17:28 54.02678 -57.05990 38967 ft 439 kts 261°
2026-04-17 17:28 54.01535 -57.16227 38965 ft 440 kts 261°
2026-04-17 17:29 54.00391 -57.26483 38959 ft 441 kts 261°
2026-04-17 17:29 53.99241 -57.36672 38965 ft 441 kts 260°
2026-04-17 17:30 53.98080 -57.46889 38961 ft 441 kts 260°
2026-04-17 17:30 53.96907 -57.57117 38953 ft 439 kts 261°
2026-04-17 17:31 53.95733 -57.67280 38962 ft 438 kts 260°
2026-04-17 17:31 53.94549 -57.77451 38957 ft 439 kts 260°
2026-04-17 17:32 53.93357 -57.87614 38954 ft 439 kts 260°
2026-04-17 17:32 53.92154 -57.97786 38959 ft 440 kts 260°
2026-04-17 17:33 53.90940 -58.07972 38965 ft 441 kts 260°
2026-04-17 17:33 53.89716 -58.18170 38962 ft 441 kts 260°
2026-04-17 17:34 53.88485 -58.28338 38960 ft 439 kts 260°
2026-04-17 17:34 53.87256 -58.38422 38961 ft 438 kts 260°
2026-04-17 17:35 53.86013 -58.48540 38961 ft 438 kts 260°
2026-04-17 17:35 53.84764 -58.58640 38972 ft 438 kts 260°
2026-04-17 17:36 53.83509 -58.68707 38979 ft 439 kts 260°
2026-04-17 17:36 53.82236 -58.78843 38981 ft 440 kts 260°
2026-04-17 17:37 53.80956 -58.88966 38989 ft 440 kts 260°
2026-04-17 17:37 53.79665 -58.99094 38974 ft 438 kts 260°
2026-04-17 17:38 53.78382 -59.09092 38970 ft 437 kts 260°
2026-04-17 17:38 53.77083 -59.19146 38976 ft 437 kts 259°
2026-04-17 17:39 53.75771 -59.29231 38976 ft 438 kts 259°
2026-04-17 17:39 53.74455 -59.39267 38978 ft 438 kts 259°
2026-04-17 17:40 53.73128 -59.49323 38994 ft 439 kts 259°
2026-04-17 17:40 53.71794 -59.59359 38995 ft 441 kts 259°
2026-04-17 17:41 53.70443 -59.69450 38982 ft 439 kts 259°
2026-04-17 17:41 53.69091 -59.79484 38983 ft 438 kts 259°
2026-04-17 17:42 53.67733 -59.89498 38980 ft 437 kts 259°
2026-04-17 17:42 53.66383 -59.99382 38983 ft 436 kts 259°
2026-04-17 17:43 53.65012 -60.09350 38982 ft 436 kts 259°
2026-04-17 17:43 53.63634 -60.19309 38997 ft 438 kts 259°
2026-04-17 17:44 53.62237 -60.29331 38995 ft 440 kts 259°
2026-04-17 17:44 53.60835 -60.39322 38981 ft 438 kts 259°
2026-04-17 17:45 53.59424 -60.49317 38983 ft 438 kts 259°
2026-04-17 17:45 53.58006 -60.59291 38985 ft 438 kts 259°
2026-04-17 17:46 53.56579 -60.69267 38988 ft 438 kts 259°
2026-04-17 17:46 53.55143 -60.79243 38989 ft 439 kts 259°
2026-04-17 17:47 53.53706 -60.89156 38995 ft 439 kts 259°
2026-04-17 17:47 53.52249 -60.99148 38997 ft 440 kts 259°
2026-04-17 17:48 53.50784 -61.09125 38993 ft 438 kts 259°
2026-04-17 17:48 53.49325 -61.19004 39002 ft 438 kts 259°
2026-04-17 17:49 53.47848 -61.28937 39004 ft 438 kts 259°
2026-04-17 17:49 53.46363 -61.38871 39004 ft 438 kts 258°
2026-04-17 17:50 53.44878 -61.48736 39010 ft 439 kts 258°
2026-04-17 17:50 53.43368 -61.58710 39016 ft 440 kts 258°
2026-04-17 17:51 53.41853 -61.68649 38978 ft 440 kts 258°
2026-04-17 17:51 53.40342 -61.78502 39008 ft 438 kts 258°
2026-04-17 17:52 53.38819 -61.88381 39008 ft 437 kts 258°
2026-04-17 17:52 53.37287 -61.98250 39024 ft 437 kts 258°
2026-04-17 17:53 53.35749 -62.08101 39022 ft 437 kts 258°
2026-04-17 17:53 53.34204 -62.17939 39021 ft 436 kts 258°
2026-04-17 17:54 53.32663 -62.27695 39044 ft 436 kts 258°
2026-04-17 17:54 53.31102 -62.37514 39012 ft 436 kts 258°
2026-04-17 17:55 53.29536 -62.47310 39039 ft 435 kts 258°
2026-04-17 17:55 53.27971 -62.57043 39049 ft 436 kts 258°
2026-04-17 17:56 53.26387 -62.66838 39051 ft 437 kts 258°
2026-04-17 17:56 53.24786 -62.76681 39052 ft 438 kts 258°
2026-04-17 17:57 53.23188 -62.86449 39059 ft 438 kts 258°
2026-04-17 17:57 53.21566 -62.96305 39056 ft 437 kts 258°
2026-04-17 17:58 53.19962 -63.05996 39016 ft 435 kts 258°
2026-04-17 17:58 53.18343 -63.15722 39054 ft 435 kts 258°
2026-04-17 17:59 53.16714 -63.25456 39055 ft 435 kts 258°
2026-04-17 17:59 53.15077 -63.35181 39056 ft 436 kts 258°
2026-04-17 18:00 53.13430 -63.44912 39057 ft 436 kts 258°
2026-04-17 18:00 53.11783 -63.54586 39059 ft 437 kts 258°
2026-04-17 18:01 53.10117 -63.64321 39069 ft 437 kts 258°
2026-04-17 18:01 53.08440 -63.74065 39069 ft 436 kts 257°
2026-04-17 18:02 53.06773 -63.83701 39067 ft 435 kts 257°
2026-04-17 18:02 53.05094 -63.93349 39069 ft 434 kts 257°
2026-04-17 18:03 53.03406 -64.03000 39069 ft 433 kts 257°
2026-04-17 18:03 53.01713 -64.12625 39067 ft 434 kts 257°
2026-04-17 18:04 53.00294 -64.20654 39080 ft 436 kts 257°
2026-04-17 18:04 52.98572 -64.30348 39085 ft 438 kts 257°
2026-04-17 18:05 52.96839 -64.40052 39083 ft 436 kts 257°
2026-04-17 18:05 52.95120 -64.49623 39084 ft 434 kts 257°
2026-04-17 18:06 52.93389 -64.59216 39088 ft 433 kts 257°
2026-04-17 18:06 52.91663 -64.68728 39089 ft 433 kts 257°
2026-04-17 18:07 52.89917 -64.78307 39092 ft 434 kts 257°
2026-04-17 18:07 52.88162 -64.87879 39095 ft 434 kts 257°
2026-04-17 18:08 52.86400 -64.97438 39095 ft 435 kts 257°
2026-04-17 18:08 52.84629 -65.07000 39100 ft 433 kts 257°
2026-04-17 18:09 52.82858 -65.16512 39104 ft 432 kts 257°
2026-04-17 18:09 52.81088 -65.25972 39100 ft 432 kts 257°
2026-04-17 18:10 52.79312 -65.35416 39107 ft 432 kts 257°
2026-04-17 18:10 52.77522 -65.44885 39103 ft 432 kts 256°
2026-04-17 18:11 52.75720 -65.54369 39104 ft 432 kts 256°
2026-04-17 18:11 52.73913 -65.63836 39103 ft 432 kts 256°
2026-04-17 18:12 52.72100 -65.73277 39102 ft 431 kts 256°
2026-04-17 18:12 52.70281 -65.82716 39107 ft 433 kts 256°
2026-04-17 18:13 52.68456 -65.92128 39110 ft 433 kts 256°
2026-04-17 18:13 52.66618 -66.01569 39110 ft 432 kts 256°
2026-04-17 18:14 52.64777 -66.10975 39110 ft 431 kts 256°
2026-04-17 18:14 52.62931 -66.20361 39111 ft 430 kts 256°
2026-04-17 18:15 52.61087 -66.29694 39114 ft 431 kts 256°
2026-04-17 18:15 52.59226 -66.39058 39119 ft 431 kts 256°
2026-04-17 18:16 52.57354 -66.48450 39119 ft 433 kts 256°
2026-04-17 18:16 52.55464 -66.57871 39121 ft 433 kts 256°
2026-04-17 18:17 52.53577 -66.67236 39131 ft 434 kts 256°
2026-04-17 18:17 52.50717 -66.81344 39120 ft 432 kts 256°
2026-04-17 18:18 52.48806 -66.90685 39123 ft 431 kts 253°
2026-04-17 18:18 52.46042 -66.99273 39135 ft 441 kts 240°
2026-04-17 18:19 52.41810 -67.06669 39135 ft 457 kts 226°
2026-04-17 18:19 52.36844 -67.13214 39127 ft 458 kts 226°
2026-04-17 18:20 52.31873 -67.19720 39130 ft 457 kts 226°
2026-04-17 18:20 52.26908 -67.26214 39102 ft 456 kts 226°
2026-04-17 18:21 52.21961 -67.32658 39117 ft 454 kts 226°
2026-04-17 18:21 52.17017 -67.39086 39123 ft 455 kts 226°
2026-04-17 18:22 52.12089 -67.45467 39122 ft 455 kts 226°
2026-04-17 18:22 52.07122 -67.51886 39076 ft 456 kts 226°
2026-04-17 18:23 52.02182 -67.58244 39123 ft 452 kts 226°
2026-04-17 18:23 51.97258 -67.64573 39114 ft 451 kts 226°
2026-04-17 18:24 51.92327 -67.70885 39115 ft 451 kts 226°
2026-04-17 18:24 51.87390 -67.77190 39103 ft 452 kts 226°
2026-04-17 18:25 51.82497 -67.83417 39094 ft 449 kts 226°
2026-04-17 18:25 51.77571 -67.89677 39096 ft 450 kts 226°
2026-04-17 18:26 51.72666 -67.95883 39086 ft 450 kts 226°
2026-04-17 18:26 51.67714 -68.02136 39089 ft 450 kts 226°
2026-04-17 18:27 51.62788 -68.08332 39074 ft 447 kts 226°
2026-04-17 18:27 51.57915 -68.14456 39070 ft 447 kts 226°
2026-04-17 18:28 51.53071 -68.20517 39072 ft 448 kts 226°
2026-04-17 18:28 51.48072 -68.26758 39075 ft 448 kts 226°
2026-04-17 18:29 51.43168 -68.32861 39074 ft 448 kts 226°
2026-04-17 18:29 51.38243 -68.38975 39072 ft 447 kts 225°
2026-04-17 18:30 51.33310 -68.45082 39071 ft 448 kts 225°
2026-04-17 18:30 51.28402 -68.51140 39073 ft 448 kts 225°
2026-04-17 18:31 51.23464 -68.57215 39069 ft 445 kts 225°
2026-04-17 18:31 51.18538 -68.63270 39074 ft 449 kts 225°
2026-04-17 18:32 51.13562 -68.69353 39078 ft 450 kts 225°
2026-04-17 18:32 51.08620 -68.75388 39070 ft 450 kts 225°
2026-04-17 18:33 51.03651 -68.81435 39066 ft 447 kts 225°
2026-04-17 18:33 50.98740 -68.87398 39062 ft 446 kts 225°
2026-04-17 18:34 50.93797 -68.93385 39061 ft 447 kts 225°
2026-04-17 18:34 50.88842 -68.99366 39062 ft 447 kts 225°
2026-04-17 18:35 50.83880 -69.05339 39068 ft 447 kts 225°
2026-04-17 18:35 50.78953 -69.11255 39064 ft 447 kts 225°
2026-04-17 18:36 50.73996 -69.17192 39071 ft 447 kts 225°
2026-04-17 18:36 50.69020 -69.23135 39063 ft 447 kts 225°
2026-04-17 18:37 50.64051 -69.29052 39070 ft 446 kts 224°
2026-04-17 18:37 50.59123 -69.34905 39068 ft 446 kts 224°
2026-04-17 18:38 50.54162 -69.40783 39069 ft 446 kts 224°
2026-04-17 18:38 50.49200 -69.46644 39063 ft 445 kts 224°
2026-04-17 18:39 50.44244 -69.52484 39050 ft 444 kts 224°
2026-04-17 18:39 50.39292 -69.58302 39052 ft 444 kts 224°
2026-04-17 18:40 50.34367 -69.64074 39047 ft 445 kts 224°
2026-04-17 18:40 50.29401 -69.69877 39049 ft 444 kts 224°
2026-04-17 18:41 50.24439 -69.75662 39049 ft 443 kts 224°
2026-04-17 18:41 50.19630 -69.81255 39060 ft 445 kts 224°
2026-04-17 18:42 50.14638 -69.87043 39066 ft 446 kts 224°
2026-04-17 18:42 50.09652 -69.92808 39068 ft 446 kts 224°
2026-04-17 18:43 50.04699 -69.98522 39068 ft 445 kts 224°
2026-04-17 18:43 49.99694 -70.04283 39067 ft 449 kts 223°
2026-04-17 18:44 49.94664 -70.10047 39067 ft 448 kts 223°
2026-04-17 18:44 49.89667 -70.15771 39070 ft 449 kts 223°
2026-04-17 18:45 49.84621 -70.21526 39071 ft 450 kts 223°
2026-04-17 18:45 49.79577 -70.27270 39077 ft 450 kts 223°
2026-04-17 18:46 49.74508 -70.33024 39076 ft 451 kts 223°
2026-04-17 18:46 49.69477 -70.38720 39079 ft 451 kts 223°
2026-04-17 18:47 49.64414 -70.44436 39082 ft 450 kts 223°
2026-04-17 18:47 49.59351 -70.50142 39080 ft 451 kts 223°
2026-04-17 18:48 49.54279 -70.55837 39084 ft 452 kts 223°
2026-04-17 18:48 49.50053 -70.60573 39082 ft 451 kts 223°
2026-04-17 18:49 49.44977 -70.66248 39079 ft 450 kts 223°
2026-04-17 18:49 49.39901 -70.71908 39082 ft 450 kts 223°
2026-04-17 18:50 49.34837 -70.77540 39080 ft 449 kts 223°
2026-04-17 18:50 49.29777 -70.83153 39081 ft 449 kts 223°
2026-04-17 18:51 49.24727 -70.88742 39086 ft 452 kts 223°
2026-04-17 18:51 49.19598 -70.94402 39096 ft 455 kts 223°
2026-04-17 18:52 49.14461 -71.00053 39101 ft 454 kts 223°
2026-04-17 18:52 49.09371 -71.05643 39101 ft 452 kts 223°
2026-04-17 18:53 49.04240 -71.11263 39101 ft 456 kts 223°
2026-04-17 18:53 48.99052 -71.16926 39108 ft 458 kts 222°
2026-04-17 18:54 48.93902 -71.22535 39114 ft 457 kts 222°
2026-04-17 18:54 48.88716 -71.28171 39109 ft 457 kts 222°
2026-04-17 18:55 48.83548 -71.33772 39116 ft 460 kts 222°
2026-04-17 18:55 48.78320 -71.39421 39121 ft 460 kts 222°
2026-04-17 18:56 48.73102 -71.45046 39124 ft 460 kts 222°
2026-04-17 18:56 48.67878 -71.50663 39118 ft 459 kts 221°
2026-04-17 18:57 48.62653 -71.56266 39130 ft 460 kts 221°
2026-04-17 18:57 48.57424 -71.61859 39143 ft 461 kts 221°
2026-04-17 18:58 48.52202 -71.67429 39144 ft 462 kts 221°
2026-04-17 18:58 48.46935 -71.73035 39150 ft 463 kts 221°
2026-04-17 18:59 48.41655 -71.78638 39149 ft 463 kts 221°
2026-04-17 18:59 48.36423 -71.84176 39150 ft 462 kts 221°
2026-04-17 19:00 48.31172 -71.89721 39143 ft 461 kts 221°
2026-04-17 19:00 48.25915 -71.95260 39137 ft 463 kts 221°
2026-04-17 19:01 48.20627 -72.00813 39139 ft 464 kts 221°
2026-04-17 19:01 48.15336 -72.06357 39134 ft 463 kts 221°
2026-04-17 19:02 48.10063 -72.11867 39133 ft 463 kts 221°
2026-04-17 19:02 48.04771 -72.17384 39130 ft 463 kts 221°
2026-04-17 19:03 47.99519 -72.22845 39120 ft 463 kts 221°
2026-04-17 19:03 47.94221 -72.28340 39114 ft 463 kts 221°
2026-04-17 19:04 47.88926 -72.33818 39114 ft 463 kts 221°
2026-04-17 19:04 47.83633 -72.39281 39112 ft 465 kts 221°
2026-04-17 19:05 47.78308 -72.44761 39108 ft 465 kts 221°
2026-04-17 19:05 47.72972 -72.50241 39079 ft 466 kts 220°
2026-04-17 19:06 47.67656 -72.55685 39102 ft 467 kts 220°
2026-04-17 19:06 47.62297 -72.61158 39101 ft 467 kts 220°
2026-04-17 19:07 47.56949 -72.66607 39095 ft 466 kts 220°
2026-04-17 19:07 47.51584 -72.72061 39095 ft 467 kts 220°
2026-04-17 19:08 47.46258 -72.77460 39096 ft 467 kts 220°
2026-04-17 19:08 47.40893 -72.82884 39096 ft 467 kts 220°
2026-04-17 19:09 47.35524 -72.88301 39083 ft 467 kts 220°
2026-04-17 19:09 47.30143 -72.93715 39100 ft 469 kts 220°
2026-04-17 19:10 47.24747 -72.99130 39096 ft 468 kts 220°
2026-04-17 19:10 47.19357 -73.04526 39096 ft 468 kts 220°
2026-04-17 19:11 47.13960 -73.09918 39106 ft 470 kts 220°
2026-04-17 19:11 47.08532 -73.15323 39102 ft 471 kts 220°
2026-04-17 19:12 47.03138 -73.20683 39107 ft 471 kts 220°
2026-04-17 19:12 47.00425 -73.23375 39213 ft 469 kts 220°
2026-04-17 19:12 46.97733 -73.26039 39476 ft 466 kts 220°
2026-04-17 19:13 46.95033 -73.28712 39591 ft 467 kts 220°
2026-04-17 19:13 46.92333 -73.31381 39774 ft 467 kts 220°
2026-04-17 19:13 46.89671 -73.34008 39922 ft 468 kts 219°
2026-04-17 19:13 46.86962 -73.36677 40087 ft 468 kts 219°
2026-04-17 19:14 46.81540 -73.42014 40094 ft 471 kts 219°
2026-04-17 19:14 46.76120 -73.47330 40099 ft 468 kts 219°
2026-04-17 19:15 46.70700 -73.52639 40096 ft 469 kts 219°
2026-04-17 19:15 46.65306 -73.57905 40103 ft 469 kts 219°
2026-04-17 19:16 46.59880 -73.63193 40106 ft 468 kts 219°
2026-04-17 19:16 46.54451 -73.68468 40103 ft 470 kts 219°
2026-04-17 19:17 46.49028 -73.73725 40104 ft 470 kts 219°
2026-04-17 19:17 46.43582 -73.78992 40106 ft 470 kts 219°
2026-04-17 19:18 46.38134 -73.84249 40098 ft 470 kts 219°
2026-04-17 19:18 46.32711 -73.89467 40094 ft 469 kts 219°
2026-04-17 19:19 46.27269 -73.94691 40089 ft 469 kts 219°
2026-04-17 19:19 46.21826 -73.99906 40087 ft 469 kts 219°
2026-04-17 19:20 46.16400 -74.05090 40092 ft 470 kts 218°
2026-04-17 19:20 46.11181 -74.10064 40093 ft 470 kts 218°
2026-04-17 19:21 46.05688 -74.15289 40089 ft 470 kts 218°
2026-04-17 19:21 46.00244 -74.20453 40091 ft 472 kts 218°
2026-04-17 19:22 45.94752 -74.25650 40088 ft 472 kts 218°
2026-04-17 19:22 45.89261 -74.30834 40089 ft 471 kts 218°
2026-04-17 19:23 45.81017 -74.38594 40087 ft 473 kts 218°
2026-04-17 19:24 45.75542 -74.43733 40093 ft 474 kts 218°
2026-04-17 19:24 45.70019 -74.48902 40092 ft 474 kts 218°
2026-04-17 19:25 45.64504 -74.54053 40091 ft 472 kts 218°
2026-04-17 19:25 45.58996 -74.59186 40084 ft 471 kts 218°
2026-04-17 19:26 45.53534 -74.64262 40081 ft 472 kts 218°
2026-04-17 19:26 45.48017 -74.69381 40084 ft 474 kts 218°
2026-04-17 19:27 45.42469 -74.74511 40084 ft 475 kts 218°
2026-04-17 19:27 45.36908 -74.79644 40087 ft 475 kts 218°
2026-04-17 19:28 45.31394 -74.84721 40081 ft 475 kts 218°
2026-04-17 19:28 45.25840 -74.89824 40080 ft 475 kts 218°
2026-04-17 19:29 45.20283 -74.94915 40082 ft 475 kts 218°
2026-04-17 19:29 45.14751 -74.99973 40086 ft 474 kts 218°
2026-04-17 19:30 45.09201 -75.05035 40095 ft 474 kts 218°
2026-04-17 19:30 45.03652 -75.10085 40093 ft 474 kts 218°
2026-04-17 19:31 44.98103 -75.15123 40111 ft 473 kts 217°
2026-04-17 19:31 44.92547 -75.20156 40106 ft 475 kts 217°
2026-04-17 19:32 44.86963 -75.25201 40100 ft 477 kts 217°
2026-04-17 19:32 44.81398 -75.30218 40087 ft 477 kts 217°
2026-04-17 19:33 44.75803 -75.35249 40081 ft 475 kts 217°
2026-04-17 19:33 44.70276 -75.40210 40075 ft 473 kts 217°
2026-04-17 19:34 44.64722 -75.45182 40077 ft 474 kts 217°
2026-04-17 19:34 44.60087 -75.49323 40080 ft 474 kts 217°
2026-04-17 19:35 44.53608 -75.55098 40079 ft 474 kts 217°
2026-04-17 19:35 44.48943 -75.59246 40084 ft 473 kts 217°
2026-04-17 19:36 44.43366 -75.64197 40078 ft 475 kts 217°
2026-04-17 19:36 44.37761 -75.69159 40072 ft 477 kts 217°
2026-04-17 19:37 44.32178 -75.74090 40072 ft 478 kts 217°
2026-04-17 19:37 44.26543 -75.79056 40054 ft 477 kts 217°
2026-04-17 19:38 44.20933 -75.83988 40048 ft 475 kts 217°
2026-04-17 19:38 44.15380 -75.88861 40048 ft 474 kts 217°
2026-04-17 19:39 44.09786 -75.93758 40052 ft 474 kts 217°
2026-04-17 19:39 44.04188 -75.98647 40067 ft 476 kts 217°
2026-04-17 19:40 43.98583 -76.03528 40069 ft 476 kts 215°
2026-04-17 19:40 43.95591 -76.05604 40099 ft 482 kts 204°
2026-04-17 19:40 43.92389 -76.06904 40091 ft 489 kts 194°
2026-04-17 19:41 43.85834 -76.08147 40082 ft 492 kts 191°
2026-04-17 19:41 43.79042 -76.09347 40083 ft 491 kts 191°
2026-04-17 19:42 43.72285 -76.10556 40070 ft 491 kts 191°
2026-04-17 19:42 43.65511 -76.11756 40069 ft 490 kts 191°
2026-04-17 19:43 43.58740 -76.12956 40071 ft 489 kts 191°
2026-04-17 19:43 43.52020 -76.14144 40069 ft 489 kts 191°
2026-04-17 19:44 43.45250 -76.15340 40067 ft 492 kts 191°
2026-04-17 19:44 43.38424 -76.16538 40073 ft 494 kts 191°
2026-04-17 19:45 43.31792 -76.17703 40076 ft 493 kts 191°
2026-04-17 19:45 43.24985 -76.18895 40077 ft 493 kts 191°
2026-04-17 19:46 43.18183 -76.20198 40085 ft 489 kts 199°
2026-04-17 19:46 43.12062 -76.23774 40109 ft 478 kts 216°
2026-04-17 19:47 43.06351 -76.28494 40090 ft 479 kts 215°
2026-04-17 19:47 43.00652 -76.33217 40068 ft 479 kts 215°
2026-04-17 19:48 42.94945 -76.37920 40070 ft 478 kts 215°
2026-04-17 19:48 42.89251 -76.42611 40063 ft 478 kts 215°
2026-04-17 19:49 42.83660 -76.47203 40063 ft 477 kts 215°
2026-04-17 19:49 42.77886 -76.51936 40070 ft 478 kts 215°
2026-04-17 19:50 42.72299 -76.56507 40075 ft 480 kts 215°
2026-04-17 19:50 42.66567 -76.61185 40081 ft 481 kts 215°
2026-04-17 19:51 42.60826 -76.65861 40070 ft 481 kts 215°
2026-04-17 19:51 42.55076 -76.70533 40070 ft 481 kts 215°
2026-04-17 19:52 42.49328 -76.75194 40067 ft 481 kts 215°
2026-04-17 19:52 42.43569 -76.79853 40064 ft 481 kts 215°
2026-04-17 19:53 42.37850 -76.84471 40056 ft 482 kts 215°
2026-04-17 19:53 42.32063 -76.89132 40048 ft 483 kts 215°
2026-04-17 19:54 42.26273 -76.93787 40032 ft 483 kts 215°
2026-04-17 19:54 42.20465 -76.98448 40046 ft 488 kts 215°
2026-04-17 19:55 42.14606 -77.03136 40066 ft 496 kts 215°
2026-04-17 19:55 42.08634 -77.07904 40061 ft 502 kts 215°
2026-04-17 19:56 42.02606 -77.12706 40056 ft 504 kts 215°
2026-04-17 19:56 41.96561 -77.17511 40053 ft 504 kts 215°
2026-04-17 19:57 41.90515 -77.22307 40043 ft 504 kts 215°
2026-04-17 19:57 41.84509 -77.27061 40028 ft 503 kts 215°
2026-04-17 19:58 41.78460 -77.31838 40030 ft 503 kts 215°
2026-04-17 19:58 41.72447 -77.36576 40027 ft 504 kts 215°
2026-04-17 19:59 41.66385 -77.41341 40025 ft 504 kts 215°
2026-04-17 19:59 41.60308 -77.46110 40040 ft 505 kts 215°
2026-04-17 20:00 41.54254 -77.50847 40033 ft 504 kts 215°
2026-04-17 20:00 41.48195 -77.55580 40025 ft 504 kts 215°
2026-04-17 20:01 41.42173 -77.60273 40011 ft 504 kts 215°
2026-04-17 20:01 41.36084 -77.65008 40013 ft 504 kts 215°
2026-04-17 20:02 41.30050 -77.69690 40017 ft 505 kts 215°
2026-04-17 20:02 41.23969 -77.74399 40018 ft 505 kts 215°
2026-04-17 20:03 41.17881 -77.79103 40018 ft 506 kts 215°
2026-04-17 20:03 41.11802 -77.83788 40016 ft 505 kts 215°
2026-04-17 20:04 41.05767 -77.88431 40030 ft 504 kts 215°
2026-04-17 20:04 40.99687 -77.93098 40034 ft 505 kts 215°
2026-04-17 20:05 40.93625 -77.97792 40046 ft 502 kts 220°
2026-04-17 20:05 40.88573 -78.03947 40055 ft 490 kts 234°
2026-04-17 20:06 40.84126 -78.10728 40057 ft 491 kts 234°
2026-04-17 20:06 40.79661 -78.17544 40053 ft 491 kts 234°
2026-04-17 20:07 40.75178 -78.24354 40141 ft 491 kts 234°
2026-04-17 20:07 40.72937 -78.27759 40270 ft 490 kts 234°
2026-04-17 20:07 40.70701 -78.31151 40413 ft 490 kts 234°
2026-04-17 20:07 40.68462 -78.34541 40547 ft 490 kts 234°
2026-04-17 20:08 40.66222 -78.37927 40662 ft 490 kts 234°
2026-04-17 20:08 40.63997 -78.41293 40774 ft 490 kts 234°
2026-04-17 20:08 40.61785 -78.44633 40913 ft 490 kts 234°
2026-04-17 20:08 40.59550 -78.48002 41051 ft 489 kts 234°
2026-04-17 20:09 40.57299 -78.51394 41047 ft 492 kts 234°
2026-04-17 20:09 40.52800 -78.58158 41047 ft 490 kts 234°
2026-04-17 20:10 40.48318 -78.64884 41048 ft 489 kts 234°
2026-04-17 20:10 40.43843 -78.71581 41049 ft 488 kts 234°
2026-04-17 20:11 40.39359 -78.78283 41085 ft 488 kts 234°
2026-04-17 20:11 40.34862 -78.84985 41101 ft 488 kts 234°
2026-04-17 20:12 40.30393 -78.91634 41098 ft 489 kts 234°
2026-04-17 20:12 40.25888 -78.98318 41093 ft 488 kts 234°
2026-04-17 20:13 40.21385 -79.04987 41088 ft 488 kts 234°
2026-04-17 20:13 40.16893 -79.11623 41082 ft 484 kts 234°
2026-04-17 20:14 40.12459 -79.18187 41084 ft 484 kts 235°
2026-04-17 20:14 40.08071 -79.24859 41081 ft 484 kts 235°
2026-04-17 20:15 40.03636 -79.31492 41083 ft 484 kts 234°
2026-04-17 20:15 39.99218 -79.38133 41087 ft 484 kts 234°
2026-04-17 20:16 39.94818 -79.44710 41078 ft 482 kts 234°
2026-04-17 20:16 39.90419 -79.51281 41075 ft 480 kts 234°
2026-04-17 20:17 39.86015 -79.57846 41079 ft 482 kts 234°
2026-04-17 20:17 39.82342 -79.63304 41081 ft 482 kts 234°
2026-04-17 20:18 39.77926 -79.69861 41078 ft 482 kts 234°
2026-04-17 20:18 39.73625 -79.76231 41082 ft 484 kts 234°
2026-04-17 20:19 39.69180 -79.82799 41077 ft 482 kts 234°
2026-04-17 20:19 39.64767 -79.89308 41078 ft 479 kts 234°
2026-04-17 20:20 39.60362 -79.95795 41079 ft 480 kts 234°
2026-04-17 20:20 39.55966 -80.02249 41081 ft 481 kts 234°
2026-04-17 20:21 39.51532 -80.08750 41075 ft 481 kts 234°
2026-04-17 20:21 39.47083 -80.15264 41068 ft 481 kts 234°
2026-04-17 20:22 39.42649 -80.21740 41042 ft 478 kts 234°
2026-04-17 20:22 39.38258 -80.28142 41040 ft 477 kts 234°
2026-04-17 20:23 39.33838 -80.34574 41069 ft 479 kts 234°
2026-04-17 20:23 39.29402 -80.41012 41064 ft 479 kts 234°
2026-04-17 20:24 39.24984 -80.47414 41058 ft 480 kts 234°
2026-04-17 20:24 39.20535 -80.53846 41047 ft 480 kts 234°
2026-04-17 20:25 39.16158 -80.60157 41040 ft 473 kts 234°
2026-04-17 20:25 39.11773 -80.66479 41040 ft 473 kts 234°
2026-04-17 20:26 39.07374 -80.72797 41042 ft 474 kts 234°
2026-04-17 20:26 39.02956 -80.79135 41043 ft 475 kts 234°
2026-04-17 20:27 38.98553 -80.85487 41030 ft 475 kts 234°
2026-04-17 20:27 38.94203 -80.91883 41048 ft 476 kts 234°
2026-04-17 20:28 38.89861 -80.98168 41041 ft 471 kts 234°
2026-04-17 20:28 38.85529 -81.04479 41039 ft 470 kts 234°
2026-04-17 20:29 38.81177 -81.10779 41040 ft 472 kts 234°
2026-04-17 20:29 38.76823 -81.17079 41057 ft 472 kts 234°
2026-04-17 20:30 38.70291 -81.26502 41057 ft 473 kts 234°
2026-04-17 20:30 38.65920 -81.32794 41056 ft 471 kts 234°
2026-04-17 20:31 38.61552 -81.39069 41059 ft 471 kts 234°
2026-04-17 20:31 38.57187 -81.45325 41038 ft 471 kts 234°
2026-04-17 20:32 38.52840 -81.51547 41043 ft 472 kts 234°
2026-04-17 20:32 38.48449 -81.57816 41068 ft 473 kts 234°
2026-04-17 20:33 38.44054 -81.64080 41071 ft 473 kts 234°
2026-04-17 20:33 38.39691 -81.70282 41067 ft 470 kts 234°
2026-04-17 20:34 38.34836 -81.75963 41077 ft 483 kts 220°
2026-04-17 20:34 38.31899 -81.78128 41090 ft 495 kts 212°
2026-04-17 20:34 38.28654 -81.79761 41083 ft 504 kts 206°
2026-04-17 20:35 38.22007 -81.82683 41066 ft 505 kts 206°
2026-04-17 20:35 38.15346 -81.85591 41068 ft 506 kts 206°
2026-04-17 20:36 38.08696 -81.88500 41058 ft 505 kts 206°
2026-04-17 20:36 38.02083 -81.91381 41057 ft 505 kts 206°
2026-04-17 20:37 37.95434 -81.94274 41057 ft 504 kts 206°
2026-04-17 20:37 37.88781 -81.97163 41047 ft 505 kts 207°
2026-04-17 20:38 37.82106 -82.00058 41045 ft 507 kts 206°
2026-04-17 20:38 37.75430 -82.02943 41041 ft 506 kts 207°
2026-04-17 20:39 37.68806 -82.05806 41051 ft 506 kts 207°
2026-04-17 20:39 37.62195 -82.08656 41054 ft 510 kts 207°
2026-04-17 20:40 37.55461 -82.11550 41049 ft 510 kts 207°
2026-04-17 20:40 37.48728 -82.14442 41054 ft 511 kts 207°
2026-04-17 20:41 37.42043 -82.17306 41046 ft 511 kts 207°
2026-04-17 20:41 37.35290 -82.20195 41043 ft 512 kts 207°
2026-04-17 20:42 37.28558 -82.23069 41051 ft 510 kts 207°
2026-04-17 20:42 37.21824 -82.25939 41033 ft 511 kts 207°
2026-04-17 20:43 37.15070 -82.28810 41050 ft 513 kts 207°
2026-04-17 20:43 37.08338 -82.31672 41061 ft 513 kts 208°
2026-04-17 20:44 37.01883 -82.35223 41060 ft 507 kts 212°
2026-04-17 20:44 36.95445 -82.38843 41055 ft 507 kts 213°
2026-04-17 20:45 36.89022 -82.42486 41053 ft 505 kts 213°
2026-04-17 20:45 36.82614 -82.46091 41054 ft 505 kts 213°
2026-04-17 20:46 36.76233 -82.49688 41049 ft 505 kts 213°
2026-04-17 20:46 36.69819 -82.53289 41080 ft 506 kts 213°
2026-04-17 20:47 36.63387 -82.56897 41061 ft 505 kts 213°
2026-04-17 20:47 36.56957 -82.60497 41064 ft 506 kts 213°
2026-04-17 20:48 36.50538 -82.64083 41055 ft 505 kts 213°
2026-04-17 20:48 36.44171 -82.67634 41069 ft 504 kts 213°
2026-04-17 20:49 36.37740 -82.71209 41084 ft 506 kts 213°
2026-04-17 20:49 36.31308 -82.74791 41101 ft 505 kts 213°
2026-04-17 20:50 36.24897 -82.78348 41122 ft 503 kts 214°
2026-04-17 20:50 36.18630 -82.82050 41122 ft 499 kts 214°
2026-04-17 20:51 36.12376 -82.85711 41125 ft 498 kts 214°
2026-04-17 20:51 36.06102 -82.89409 41098 ft 499 kts 214°
2026-04-17 20:52 35.99809 -82.93088 41085 ft 498 kts 214°
2026-04-17 20:52 35.93585 -82.96736 41079 ft 498 kts 214°
2026-04-17 20:53 35.87323 -83.00391 41070 ft 498 kts 214°
2026-04-17 20:53 35.81057 -83.04046 41084 ft 499 kts 214°
2026-04-17 20:54 35.74773 -83.07701 41074 ft 499 kts 214°
2026-04-17 20:54 35.68495 -83.11357 41087 ft 498 kts 214°
2026-04-17 20:55 35.62216 -83.15002 41095 ft 500 kts 214°
2026-04-17 20:55 35.55944 -83.18631 41058 ft 493 kts 214°
2026-04-17 20:56 35.52898 -83.20395 40613 ft 490 kts 214°
2026-04-17 20:56 35.49811 -83.22186 39955 ft 489 kts 215°
2026-04-17 20:56 35.46735 -83.23962 39321 ft 487 kts 215°
2026-04-17 20:56 35.43663 -83.25736 38650 ft 487 kts 215°
2026-04-17 20:57 35.40590 -83.27493 37948 ft 486 kts 214°
2026-04-17 20:57 35.37516 -83.29218 37284 ft 484 kts 214°
2026-04-17 20:57 35.34464 -83.30934 36624 ft 480 kts 214°
2026-04-17 20:57 35.31444 -83.32647 35955 ft 476 kts 214°
2026-04-17 20:58 35.28446 -83.34347 35337 ft 472 kts 213°
2026-04-17 20:58 35.25463 -83.36026 34696 ft 470 kts 213°
2026-04-17 20:58 35.22545 -83.37667 34083 ft 466 kts 213°
2026-04-17 20:58 35.19609 -83.39323 33422 ft 462 kts 213°
2026-04-17 20:59 35.16699 -83.40961 32812 ft 457 kts 212°
2026-04-17 20:59 35.13827 -83.42576 32215 ft 452 kts 212°
2026-04-17 20:59 35.10980 -83.44176 31619 ft 448 kts 212°
2026-04-17 20:59 35.08172 -83.45752 31143 ft 442 kts 212°
2026-04-17 21:00 35.05387 -83.47321 30559 ft 437 kts 212°
2026-04-17 21:00 35.02658 -83.48900 29974 ft 431 kts 213°
2026-04-17 21:00 34.99960 -83.50480 29407 ft 426 kts 213°
2026-04-17 21:00 34.97291 -83.52018 28837 ft 422 kts 213°
2026-04-17 21:01 34.94680 -83.53508 28314 ft 417 kts 213°
2026-04-17 21:01 34.92067 -83.55009 27767 ft 411 kts 213°
2026-04-17 21:01 34.89498 -83.56489 27252 ft 406 kts 213°
2026-04-17 21:01 34.86952 -83.57953 26720 ft 401 kts 213°
2026-04-17 21:02 34.84441 -83.59392 26220 ft 397 kts 212°
2026-04-17 21:02 34.82792 -83.60337 25873 ft 394 kts 212°
2026-04-17 21:02 34.80327 -83.61750 25368 ft 390 kts 212°
2026-04-17 21:02 34.77886 -83.63150 24876 ft 386 kts 212°
2026-04-17 21:03 34.75462 -83.64537 24380 ft 383 kts 212°
2026-04-17 21:03 34.72283 -83.66355 23738 ft 380 kts 212°
2026-04-17 21:03 34.70674 -83.67276 23380 ft 380 kts 212°
2026-04-17 21:03 34.68317 -83.68623 22894 ft 378 kts 211°
2026-04-17 21:04 34.65932 -83.69984 22416 ft 376 kts 211°
2026-04-17 21:04 34.63568 -83.71331 21936 ft 372 kts 211°
2026-04-17 21:04 34.61243 -83.72658 21482 ft 367 kts 211°
2026-04-17 21:04 34.58932 -83.73985 21011 ft 367 kts 211°
2026-04-17 21:05 34.56618 -83.75309 20540 ft 365 kts 210°
2026-04-17 21:05 34.54335 -83.76609 20095 ft 361 kts 210°
2026-04-17 21:05 34.52091 -83.77890 19635 ft 362 kts 210°
2026-04-17 21:05 34.49809 -83.79194 19196 ft 362 kts 210°
2026-04-17 21:06 34.47538 -83.80488 18741 ft 358 kts 209°
2026-04-17 21:06 34.45294 -83.81764 18282 ft 354 kts 209°
2026-04-17 21:06 34.43062 -83.83036 17828 ft 353 kts 209°
2026-04-17 21:06 34.40836 -83.84304 17386 ft 353 kts 209°
2026-04-17 21:07 34.38645 -83.85551 16952 ft 351 kts 209°
2026-04-17 21:07 34.36455 -83.86792 16526 ft 344 kts 208°
2026-04-17 21:07 34.34285 -83.88026 16030 ft 345 kts 208°
2026-04-17 21:07 34.32145 -83.89321 15578 ft 341 kts 213°
2026-04-17 21:08 34.30046 -83.90688 15161 ft 343 kts 210°
2026-04-17 21:08 34.27920 -83.91967 14733 ft 336 kts 210°
2026-04-17 21:08 34.25845 -83.93261 14316 ft 335 kts 211°
2026-04-17 21:08 34.23808 -83.94573 13896 ft 336 kts 211°
2026-04-17 21:09 34.21745 -83.95889 13450 ft 333 kts 211°
2026-04-17 21:09 34.19706 -83.97170 13028 ft 328 kts 210°
2026-04-17 21:09 34.17686 -83.98442 12723 ft 327 kts 210°
2026-04-17 21:09 34.15661 -83.99724 12436 ft 328 kts 210°
2026-04-17 21:10 34.13631 -84.01008 12124 ft 328 kts 210°
2026-04-17 21:10 34.11611 -84.02280 11841 ft 327 kts 210°
2026-04-17 21:10 34.09611 -84.03540 11781 ft 321 kts 210°
2026-04-17 21:10 34.07656 -84.04772 11652 ft 318 kts 210°
2026-04-17 21:11 34.05684 -84.06014 11071 ft 320 kts 208°
2026-04-17 21:11 34.03600 -84.06928 10726 ft 315 kts 194°
2026-04-17 21:11 34.01499 -84.07410 10605 ft 301 kts 191°
2026-04-17 21:11 33.99421 -84.07785 10168 ft 301 kts 189°
2026-04-17 21:12 33.97348 -84.08134 9747 ft 300 kts 189°
2026-04-17 21:12 33.95332 -84.08466 9330 ft 297 kts 189°
2026-04-17 21:12 33.93283 -84.08807 8905 ft 294 kts 189°
2026-04-17 21:12 33.91261 -84.09143 8485 ft 292 kts 189°
2026-04-17 21:13 33.89248 -84.09467 8066 ft 290 kts 189°
2026-04-17 21:13 33.87252 -84.09788 7656 ft 287 kts 189°
2026-04-17 21:13 33.85303 -84.10105 7230 ft 285 kts 189°
2026-04-17 21:13 33.83315 -84.10419 6814 ft 283 kts 189°
2026-04-17 21:14 33.81392 -84.10722 6430 ft 280 kts 189°
2026-04-17 21:14 33.79466 -84.11034 6012 ft 278 kts 189°
2026-04-17 21:14 33.77552 -84.11339 5603 ft 276 kts 189°
2026-04-17 21:14 33.75650 -84.11638 5163 ft 276 kts 189°
2026-04-17 21:15 33.73755 -84.11944 4724 ft 274 kts 189°
2026-04-17 21:15 33.71877 -84.12242 4304 ft 272 kts 189°
2026-04-17 21:15 33.70014 -84.12557 3993 ft 268 kts 194°
2026-04-17 21:15 33.68328 -84.13325 3968 ft 250 kts 212°
2026-04-17 21:16 33.66974 -84.14522 3979 ft 238 kts 222°
2026-04-17 21:16 33.65763 -84.15825 3961 ft 226 kts 227°
2026-04-17 21:16 33.64750 -84.17258 3967 ft 224 kts 233°
2026-04-17 21:16 33.63812 -84.18714 3984 ft 220 kts 234°
2026-04-17 21:17 33.63224 -84.20321 3974 ft 209 kts 266°
2026-04-17 21:17 33.63217 -84.22068 4013 ft 217 kts 269°
2026-04-17 21:17 33.63173 -84.23907 4006 ft 213 kts 270°
2026-04-17 21:17 33.63166 -84.25598 4001 ft 197 kts 271°
2026-04-17 21:18 33.63171 -84.27192 4006 ft 186 kts 270°
2026-04-17 21:18 33.63175 -84.28738 4001 ft 185 kts 271°
2026-04-17 21:18 33.63181 -84.30281 3981 ft 181 kts 270°
2026-04-17 21:18 33.63181 -84.31782 3368 ft 182 kts 270°
2026-04-17 21:19 33.63183 -84.33298 2713 ft 184 kts 270°
2026-04-17 21:19 33.63181 -84.34828 2105 ft 178 kts 270°
2026-04-17 21:19 33.63182 -84.36203 1756 ft 152 kts 267°
2026-04-17 21:19 33.63186 -84.37371 1582 ft 135 kts 269°
2026-04-17 21:20 33.63172 -84.38547 1579 ft 144 kts 269°
2026-04-17 21:20 33.63181 -84.39754 1415 ft 145 kts 270°
2026-04-17 21:20 33.63181 -84.40960 1206 ft 147 kts 269°
2026-04-17 21:20 33.63183 -84.42190 1030 ft 145 kts 270°
2026-04-17 21:21 33.63183 -84.43202 1015 ft 87 kts 270°
2026-04-17 21:21 33.63183 -84.43736 1012 ft 55 kts 269°
2026-04-17 21:21 33.63205 -84.44090 1011 ft 29 kts 289°
2026-04-17 21:21 33.63260 -84.44226 1011 ft 7 kts 303°
2026-04-17 21:22 33.63303 -84.44270 1011 ft 6 kts 340°
2026-04-17 21:22 33.63341 -84.44261 1011 ft 4 kts 42°
2026-04-17 21:22 33.63354 -84.44242 1011 ft 0 kts 50°
2026-04-17 21:22 33.63361 -84.44232 1011 ft 4 kts 50°
2026-04-17 21:23 33.63387 -84.44204 1011 ft 5 kts 29°
2026-04-17 21:23 33.63428 -84.44192 1011 ft 7 kts
2026-04-17 21:23 33.63477 -84.44193 1012 ft 7 kts 359°
2026-04-17 21:23 33.63498 -84.44193 1012 ft 0 kts 359°
2026-04-17 21:24 33.63504 -84.44193 1013 ft 1 kts
2026-04-17 21:24 33.63531 -84.44193 1013 ft 5 kts
2026-04-17 21:24 33.63580 -84.44193 1013 ft 9 kts
2026-04-17 21:25 33.63648 -84.44176 1012 ft 11 kts 34°
2026-04-17 21:25 33.63664 -84.44108 1012 ft 9 kts 89°
2026-04-17 21:25 33.63664 -84.44021 1012 ft 12 kts 90°
2026-04-17 21:25 33.63664 -84.43909 1012 ft 15 kts 89°
2026-04-17 21:26 33.63664 -84.43761 1012 ft 20 kts 91°
2026-04-17 21:26 33.63664 -84.43579 1012 ft 23 kts 90°
2026-04-17 21:26 33.63665 -84.43380 1011 ft 25 kts 90°
2026-04-17 21:26 33.63664 -84.43165 1012 ft 27 kts 91°
2026-04-17 21:27 33.63663 -84.42938 1012 ft 28 kts 90°
2026-04-17 21:27 33.63656 -84.42701 1012 ft 28 kts 95°
2026-04-17 21:27 33.63655 -84.42462 1012 ft 29 kts 89°
2026-04-17 21:27 33.63656 -84.42225 1012 ft 26 kts 90°
2026-04-17 21:28 33.63655 -84.42052 1012 ft 17 kts 90°
2026-04-17 21:28 33.63655 -84.41911 1012 ft 14 kts 90°
2026-04-17 21:28 33.63668 -84.41835 1012 ft 7 kts 48°
2026-04-17 21:28 33.63689 -84.41828 1012 ft 3 kts
2026-04-17 21:29 33.63721 -84.41830 1012 ft 5 kts 345°
2026-04-17 21:29 33.63737 -84.41847 1012 ft 1 kts 290°
2026-04-17 21:29 33.63738 -84.41863 1012 ft 3 kts 272°
2026-04-17 21:29 33.63739 -84.41899 1012 ft 2 kts 272°
2026-04-17 21:30 33.63740 -84.41917 1012 ft 2 kts 272°
2026-04-17 21:30 33.63740 -84.41930 1012 ft 1 kts 272°